Laatste waarneming: 08:36
Temperatuur:10,2°C
Dauwpunt:5,6°C
Rel. vocht:72,9%
Natte-bol:8,1°C
Wind (gem. 10 min.):3,5 m/s
Wind (max. 10 min.):1.7E+308 m/s
Windrichting:31°
Neerslagsom:0,0 mm
Neerslagintensiteit:0,0 mm/u
Luchtdruk:1015,1 hPa
Straling:284,1 W/m2
 
Maximumtemp.:10,2°C (08:15)
Minimumtemp.:8,1°C (05:18)
Hoogste windstoot:- m/s (08:22)


Bekijk de verwachting.

Bekijk de grafieken.
Bekijk het weekoverzicht.
Bekijk het maandoverzicht.
Bekijk het jaaroverzicht.
Dagtabel
Tijd Temp. Dauwp. Natte-bol Rel. Hum. Windsnelh. Windricht. Windstoot Neerslag Straling Luchtdruk
 
08:36 10,2 5,6 8,1 72,9 3,5 31 - 0,0 284 1.015,1
08:35 10,2 5,4 8,0 72,0 3,1 27 - 0,0 282 1.015,1
08:34 10,2 5,4 8,0 72,0 2,8 52 - 0,0 280 1.015,1
08:33 10,2 5,4 8,0 72,0 2,6 359 - 0,0 278 1.015,1
08:32 10,2 5,5 8,0 72,7 2,7 350 - 0,0 274 1.015,1
08:31 10,1 5,4 8,0 72,2 2,6 51 - 0,0 272 1.015,1
08:30 10,1 5,3 7,9 72,0 2,6 18 - 0,0 270 1.015,1
08:29 10,1 5,3 7,9 72,0 2,7 30 - 0,0 268 1.015,1
08:28 10,1 5,3 7,9 72,0 3,2 41 - 0,0 266 1.015,1
08:27 10,0 5,2 7,8 71,5 3,2 26 - 0,0 264 1.015,1
08:26 10,0 5,1 7,8 71,0 2,8 42 - 0,0 262 1.015,0
08:25 10,1 5,1 7,8 71,0 2,7 51 - 0,0 259 1.015,0
08:24 10,1 5,1 7,8 71,0 3,0 41 - 0,0 257 1.015,0
08:23 10,1 5,1 7,8 71,0 3,5 57 - 0,0 255 1.015,0
08:22 10,1 5,1 7,8 71,0 3,7 18 - 0,0 252 1.015,0
08:21 10,1 5,2 7,8 71,0 3,8 45 - 0,0 250 1.015,0
08:20 10,2 5,2 7,9 71,0 3,9 36 - 0,0 248 1.015,1
08:19 10,2 5,2 7,9 71,0 3,6 39 - 0,0 245 1.015,1
08:18 10,2 5,2 7,9 71,0 2,8 25 - 0,0 244 1.015,0
08:17 10,2 5,2 7,9 71,0 2,6 56 - 0,0 239 1.015,0
08:16 10,2 5,3 7,9 71,0 2,9 30 - 0,0 237 1.015,0
08:15 10,2 5,3 7,9 71,0 2,9 39 - 0,0 236 1.015,0
08:14 10,2 5,2 7,9 71,0 3,0 50 - 0,0 234 1.015,1
08:13 10,2 5,4 8,0 71,9 3,3 45 - 0,0 231 1.015,1
08:12 10,2 5,4 8,0 72,0 3,5 68 - 0,0 230 1.015,1
08:11 10,2 5,4 8,0 72,0 3,4 43 - 0,0 228 1.015,0
08:10 10,1 5,4 8,0 72,0 3,1 61 - 0,0 224 1.015,0
08:09 10,1 5,4 8,0 72,0 3,3 39 - 0,0 221 1.015,1
08:08 10,1 5,3 7,9 72,0 3,4 47 - 0,0 220 1.015,1
08:07 10,1 5,3 7,9 72,1 3,2 51 - 0,0 217 1.015,0
08:06 10,1 5,5 8,0 73,0 3,0 32 - 0,0 215 1.015,0
08:05 10,1 5,5 8,0 73,0 3,3 30 - 0,0 213 1.015,0
08:04 10,0 5,4 7,9 73,0 3,2 30 - 0,0 211 1.015,0
08:03 10,0 5,4 7,9 73,0 3,1 51 - 0,0 209 1.015,0
08:02 9,9 5,4 7,9 73,0 2,9 20 - 0,0 207 1.015,0
08:01 9,9 5,4 7,9 73,0 2,7 53 - 0,0 204 1.015,0
08:00 10,0 5,4 7,9 73,0 2,7 30 - 0,0 200 1.015,0
 
07:59 10,0 5,5 8,0 73,0 3,2 26 - 0,0 199 1.015,1
07:58 10,1 5,5 8,0 73,0 3,5 43 - 0,0 197 1.015,0
07:57 10,0 5,4 7,9 73,0 3,3 45 - 0,0 195 1.015,0
07:56 10,0 5,4 7,9 73,0 2,9 45 - 0,0 192 1.015,0
07:55 10,0 5,4 7,9 73,1 2,8 19 - 0,0 190 1.015,0
07:54 10,0 5,6 8,0 74,0 2,8 38 - 0,0 189 1.015,0
07:53 9,9 5,6 7,9 74,0 2,9 55 - 0,0 186 1.014,9
07:52 9,9 5,5 7,9 74,0 2,9 38 - 0,0 183 1.014,9
07:51 9,8 5,5 7,9 74,0 2,9 63 - 0,0 181 1.014,9
07:50 9,8 5,4 7,8 74,0 2,9 46 - 0,0 179 1.014,9
07:49 9,8 5,4 7,8 74,0 3,2 35 - 0,0 177 1.014,9
07:48 9,8 5,4 7,8 74,0 3,2 35 - 0,0 175 1.014,9
07:47 9,8 5,4 7,8 74,0 3,2 68 - 0,0 172 1.015,0
07:46 9,8 5,4 7,8 74,0 3,2 45 - 0,0 169 1.014,9
07:45 9,8 5,4 7,8 74,0 3,4 27 - 0,0 166 1.015,0
07:44 9,8 5,4 7,8 74,0 3,2 56 - 0,0 163 1.015,0
07:43 9,8 5,5 7,9 74,0 2,9 82 - 0,0 161 1.014,9
07:42 9,8 5,5 7,9 74,3 2,7 57 - 0,0 159 1.014,9
07:41 9,8 5,7 8,0 75,0 3,0 39 - 0,0 156 1.014,9
07:40 9,8 5,7 8,0 75,0 3,4 65 - 0,0 153 1.014,9
07:39 9,8 5,6 7,9 75,0 3,8 52 - 0,0 150 1.014,9
07:38 9,8 5,6 7,9 75,0 3,7 81 - 0,0 147 1.014,9
07:37 9,8 5,8 8,0 76,0 3,4 28 - 0,0 145 1.014,9
07:36 9,7 5,7 8,0 76,0 2,9 44 - 0,0 143 1.014,9
07:35 9,7 5,7 7,9 76,0 2,2 44 - 0,0 140 1.014,9
07:34 9,7 5,7 7,9 76,0 2,0 68 - 0,0 137 1.014,9
07:33 9,7 5,7 7,9 76,0 2,1 39 - 0,0 135 1.014,9
07:32 9,7 5,7 7,9 76,0 2,0 48 - 0,0 133 1.014,9
07:31 9,7 5,7 7,9 76,2 1,8 41 - 0,0 129 1.014,9
07:30 9,7 5,9 8,0 77,0 1,5 40 - 0,0 127 1.014,8
07:29 9,6 5,8 7,9 77,0 1,4 67 - 0,0 125 1.014,8
07:28 9,6 5,8 7,9 77,0 1,4 28 - 0,0 123 1.014,8
07:27 9,6 5,8 7,9 77,0 1,4 59 - 0,0 121 1.014,8
07:26 9,6 5,8 7,9 77,1 1,4 94 - 0,0 118 1.014,8
07:25 9,6 6,0 8,0 78,0 1,3 45 - 0,0 115 1.014,8
07:24 9,6 6,0 8,0 78,0 1,3 66 - 0,0 113 1.014,7
07:23 9,6 5,9 8,0 78,0 1,3 75 - 0,0 111 1.014,7
07:22 9,6 5,9 8,0 78,0 1,3 65 - 0,0 107 1.014,7
07:21 9,6 5,9 8,0 78,0 1,3 53 - 0,0 105 1.014,7
07:20 9,6 5,9 8,0 78,0 1,2 70 - 0,0 103 1.014,7
07:19 9,6 5,9 8,0 78,0 1,2 72 - 0,0 100 1.014,7
07:18 9,5 5,9 7,9 78,0 1,3 80 - 0,0 97 1.014,7
07:17 9,5 5,9 7,9 78,0 1,3 76 - 0,0 94 1.014,7
07:16 9,5 5,8 7,9 78,0 1,2 91 - 0,0 86 1.014,7
07:15 9,4 6,0 7,9 78,8 1,2 45 - 0,0 85 1.014,6
07:14 9,4 6,0 7,9 79,0 1,3 89 - 0,0 82 1.014,6
07:13 9,4 6,0 7,9 79,0 1,4 59 - 0,0 79 1.014,7
07:12 9,4 5,9 7,9 79,0 1,3 76 - 0,0 77 1.014,7
07:11 9,3 5,9 7,8 79,0 1,3 32 - 0,0 76 1.014,7
07:10 9,3 5,9 7,8 79,0 1,5 74 - 0,0 76 1.014,7
07:09 9,3 5,7 7,7 78,2 1,5 70 - 0,0 73 1.014,7
07:08 9,2 5,6 7,7 78,0 1,6 45 - 0,0 70 1.014,6
07:07 9,2 5,6 7,7 78,0 1,9 49 - 0,0 71 1.014,6
07:06 9,2 5,6 7,6 78,0 2,0 48 - 0,0 71 1.014,6
07:05 9,2 5,6 7,6 78,0 2,1 45 - 0,0 69 1.014,6
07:04 9,2 5,6 7,6 78,0 2,1 40 - 0,0 69 1.014,5
07:03 9,2 5,7 7,7 78,7 1,9 54 - 0,0 66 1.014,6
07:02 9,1 5,5 7,6 78,1 1,6 57 - 0,0 63 1.014,6
07:01 9,1 5,5 7,5 78,0 1,6 51 - 0,0 59 1.014,6
07:00 9,1 5,5 7,5 78,0 1,9 55 - 0,0 57 1.014,6
 
06:59 9,1 5,5 7,5 78,0 2,1 34 - 0,0 54 1.014,5
06:58 9,1 5,5 7,5 78,0 2,3 68 - 0,0 51 1.014,5
06:57 9,1 5,4 7,5 78,0 2,4 50 - 0,0 52 1.014,5
06:56 9,1 5,6 7,6 79,0 2,5 49 - 0,0 53 1.014,5
06:55 9,1 5,6 7,6 79,0 2,5 24 - 0,0 52 1.014,5
06:54 9,0 5,6 7,5 79,0 2,9 30 - 0,0 49 1.014,5
06:53 9,0 5,6 7,5 79,0 3,1 44 - 0,0 47 1.014,5
06:52 9,0 5,6 7,5 79,0 3,1 39 - 0,0 46 1.014,5
06:51 9,0 5,5 7,5 79,0 2,8 39 - 0,0 45 1.014,5
06:50 8,9 5,5 7,5 79,0 2,8 39 - 0,0 43 1.014,5
06:49 9,0 5,5 7,5 79,0 3,0 26 - 0,0 41 1.014,5
06:48 8,9 5,5 7,5 79,0 3,4 39 - 0,0 40 1.014,5
06:47 8,9 5,5 7,5 79,0 3,7 34 - 0,0 39 1.014,5
06:46 8,9 5,4 7,4 78,3 3,7 34 - 0,0 37 1.014,5
06:45 8,9 5,5 7,4 78,9 3,5 39 - 0,0 35 1.014,4
06:44 8,9 5,5 7,4 78,8 3,2 29 - 0,0 34 1.014,4
06:43 8,9 5,3 7,3 78,0 2,9 50 - 0,0 33 1.014,5
06:42 8,9 5,4 7,4 78,7 2,8 34 - 0,0 32 1.014,5
06:41 8,9 5,5 7,4 79,0 2,8 47 - 0,0 30 1.014,5
06:40 8,9 5,5 7,4 79,0 2,8 30 - 0,0 28 1.014,5
06:39 8,9 5,5 7,4 79,0 2,7 30 - 0,0 26 1.014,5
06:38 8,9 5,5 7,4 79,0 2,7 22 - 0,0 25 1.014,5
06:37 8,9 5,4 7,4 79,0 2,9 28 - 0,0 24 1.014,4
06:36 8,9 5,5 7,4 79,0 3,0 40 - 0,0 23 1.014,4
06:35 8,8 5,4 7,4 79,0 3,0 39 - 0,0 23 1.014,4
06:34 8,9 5,4 7,4 79,0 3,2 30 - 0,0 21 1.014,4
06:33 8,9 5,4 7,4 79,0 3,3 40 - 0,0 20 1.014,4
06:32 8,9 5,4 7,4 79,0 3,2 36 - 0,0 19 1.014,4
06:31 8,9 5,5 7,4 79,0 3,1 40 - 0,0 18 1.014,4
06:30 8,9 5,4 7,4 79,0 3,0 41 - 0,0 18 1.014,4
06:29 8,9 5,5 7,4 79,0 3,1 38 - 0,0 18 1.014,4
06:28 8,9 5,5 7,4 79,0 3,0 35 - 0,0 16 1.014,4
06:27 8,9 5,5 7,4 79,1 3,1 34 - 0,0 16 1.014,3
06:26 8,9 5,6 7,5 80,0 3,0 39 - 0,0 15 1.014,3
06:25 8,9 5,6 7,5 80,0 3,0 29 - 0,0 14 1.014,3
06:24 8,9 5,6 7,5 80,0 2,7 35 - 0,0 14 1.014,4
06:23 8,9 5,7 7,5 80,0 2,6 22 - 0,0 14 1.014,3
06:22 8,9 5,6 7,5 80,0 2,8 63 - 0,0 13 1.014,3
06:21 8,9 5,7 7,5 80,0 2,8 36 - 0,0 12 1.014,3
06:20 8,9 5,6 7,5 80,0 2,7 39 - 0,0 12 1.014,3
06:19 8,9 5,6 7,5 80,0 2,7 58 - 0,0 12 1.014,3
06:18 8,9 5,6 7,5 80,0 2,6 51 - 0,0 12 1.014,3
06:17 8,8 5,6 7,5 80,0 2,4 29 - 0,0 11 1.014,3
06:16 8,8 5,6 7,4 80,0 2,5 12 - 0,0 11 1.014,3
06:15 8,8 5,6 7,4 80,0 2,5 12 - 0,0 11 1.014,2
06:14 8,8 5,6 7,4 80,0 2,6 61 - 0,0 11 1.014,2
06:13 8,8 5,6 7,4 80,0 2,9 36 - 0,0 11 1.014,2
06:12 8,8 5,6 7,4 80,0 3,0 23 - 0,0 9 1.014,2
06:11 8,8 5,7 7,5 80,8 3,2 355 - 0,0 9 1.014,2
06:10 8,8 5,7 7,5 81,0 3,1 359 - 0,0 9 1.014,2
06:09 8,8 5,7 7,5 81,0 3,0 12 - 0,0 9 1.014,2
06:08 8,8 5,7 7,5 81,0 3,0 11 - 0,0 8 1.014,2
06:07 8,7 5,7 7,4 81,0 3,1 355 - 0,0 7 1.014,2
06:06 8,7 5,7 7,4 81,0 2,8 12 - 0,0 7 1.014,2
06:05 8,7 5,7 7,4 81,0 2,4 355 - 0,0 7 1.014,2
06:04 8,7 5,7 7,4 81,0 2,2 41 - 0,0 7 1.014,1
06:03 8,7 5,6 7,4 81,0 2,2 3 - 0,0 7 1.014,2
06:02 8,7 5,6 7,4 81,0 2,4 32 - 0,0 6 1.014,2
06:01 8,7 5,6 7,4 81,0 2,5 32 - 0,0 5 1.014,1
06:00 8,7 5,6 7,4 81,0 2,6 48 - 0,0 5 1.014,1
 
05:59 8,7 5,6 7,4 81,0 2,1 55 - 0,0 5 1.014,1
05:58 8,7 5,8 7,5 81,9 2,3 330 - 0,0 5 1.014,1
05:57 8,7 5,7 7,4 81,7 2,5 5 - 0,0 5 1.014,1
05:56 8,7 5,7 7,4 81,7 2,5 22 - 0,0 1 1.014,1
05:55 8,7 5,8 7,5 82,0 2,4 28 - 0,0 0 1.014,1
05:54 8,7 5,8 7,5 82,0 2,4 40 - 0,0 0 1.014,1
05:53 8,7 5,8 7,5 82,0 2,4 18 - 0,0 0 1.014,1
05:52 8,6 5,7 7,4 82,0 2,5 19 - 0,0 0 1.014,1
05:51 8,6 5,7 7,4 82,0 2,6 35 - 0,0 0 1.014,1
05:50 8,6 5,7 7,4 82,0 2,6 31 - 0,0 0 1.014,1
05:49 8,6 5,7 7,4 82,0 2,7 12 - 0,0 0 1.014,1
05:48 8,6 5,7 7,4 82,0 2,8 20 - 0,0 0 1.014,1
05:47 8,6 5,7 7,4 82,0 2,8 38 - 0,0 0 1.014,1
05:46 8,5 5,7 7,3 82,0 2,6 20 - 0,0 0 1.014,1
05:45 8,5 5,6 7,3 82,0 2,7 334 - 0,0 0 1.014,1
05:44 8,5 5,6 7,3 82,0 2,4 22 - 0,0 0 1.014,1
05:43 8,5 5,6 7,3 82,0 2,3 41 - 0,0 0 1.014,1
05:42 8,5 5,6 7,3 82,0 2,2 16 - 0,0 0 1.014,1
05:41 8,5 5,6 7,3 82,0 2,4 23 - 0,0 0 1.014,1
05:40 8,5 5,6 7,3 82,0 2,5 26 - 0,0 0 1.014,1
05:39 8,4 5,5 7,2 82,0 2,4 12 - 0,0 0 1.014,1
05:38 8,4 5,6 7,2 82,0 2,4 31 - 0,0 0 1.014,1
05:37 8,4 5,5 7,2 82,0 2,6 36 - 0,0 0 1.014,1
05:36 8,4 5,5 7,2 82,0 2,8 30 - 0,0 0 1.014,1
05:35 8,4 5,5 7,2 82,0 2,6 34 - 0,0 0 1.014,1
05:34 8,4 5,5 7,2 82,0 2,4 33 - 0,0 0 1.014,1
05:33 8,3 5,4 7,1 82,0 2,5 35 - 0,0 0 1.014,0
05:32 8,3 5,4 7,1 82,0 2,5 40 - 0,0 0 1.014,0
05:31 8,3 5,4 7,1 82,0 2,4 32 - 0,0 0 1.014,0
05:30 8,3 5,4 7,1 82,0 2,3 5 - 0,0 0 1.014,0
05:29 8,3 5,4 7,1 82,0 2,2 44 - 0,0 0 1.014,0
05:28 8,2 5,3 7,0 82,0 2,2 57 - 0,0 0 1.014,0
05:27 8,2 5,3 7,0 82,0 2,2 53 - 0,0 0 1.014,1
05:26 8,2 5,3 7,0 82,0 2,3 59 - 0,0 0 1.014,1
05:25 8,2 5,3 7,0 82,0 2,5 36 - 0,0 0 1.014,0
05:24 8,1 5,2 6,9 82,0 2,4 36 - 0,0 0 1.014,0
05:23 8,1 5,2 6,9 82,0 2,3 34 - 0,0 0 1.014,0
05:22 8,1 5,2 6,9 81,8 2,2 37 - 0,0 0 1.014,0
05:21 8,1 5,0 6,8 81,0 2,1 39 - 0,0 0 1.014,0
05:20 8,1 5,0 6,8 81,0 1,9 54 - 0,0 0 1.014,0
05:19 8,1 5,0 6,8 81,0 1,7 47 - 0,0 0 1.014,0
05:18 8,1 5,0 6,8 81,0 1,5 49 - 0,0 0 1.014,0
05:17 8,1 5,0 6,8 81,0 1,5 56 - 0,0 0 1.014,0
05:16 8,1 5,0 6,8 81,0 1,6 53 - 0,0 0 1.014,0
05:15 8,1 5,0 6,8 81,0 1,6 66 - 0,0 0 1.014,0
05:14 8,1 5,1 6,8 81,0 1,5 53 - 0,0 0 1.014,0
05:13 8,1 5,2 6,9 81,7 1,4 55 - 0,0 0 1.014,0
05:12 8,1 5,2 6,9 82,0 1,5 51 - 0,0 0 1.014,0
05:11 8,1 5,2 6,9 82,0 1,7 51 - 0,0 0 1.014,0
05:10 8,1 5,2 6,9 82,0 1,8 50 - 0,0 0 1.014,0
05:09 8,1 5,2 6,9 82,0 1,8 49 - 0,0 0 1.014,0
05:08 8,1 5,2 6,9 82,0 1,8 55 - 0,0 0 1.014,0
05:07 8,1 5,2 6,9 82,0 1,9 54 - 0,0 0 1.013,9
05:06 8,1 5,2 6,9 82,0 2,0 44 - 0,0 0 1.013,9
05:05 8,1 5,2 6,9 82,0 1,9 54 - 0,0 0 1.013,9
05:04 8,1 5,3 6,9 82,0 1,8 68 - 0,0 0 1.013,9
05:03 8,1 5,3 6,9 82,0 1,7 59 - 0,0 0 1.013,9
05:02 8,1 5,3 6,9 82,0 1,7 66 - 0,0 0 1.014,0
05:01 8,2 5,3 7,0 82,0 1,6 64 - 0,0 0 1.014,0
05:00 8,2 5,3 7,0 82,0 1,5 72 - 0,0 0 1.014,0
 
04:59 8,2 5,3 7,0 82,0 1,3 71 - 0,0 0 1.014,0
04:58 8,2 5,3 7,0 82,0 1,3 86 - 0,0 0 1.014,0
04:57 8,2 5,3 7,0 82,0 1,3 80 - 0,0 0 1.014,0
04:56 8,2 5,3 7,0 82,0 1,3 68 - 0,0 0 1.014,0
04:55 8,2 5,3 7,0 82,0 1,3 68 - 0,0 0 1.013,9
04:54 8,2 5,3 7,0 82,0 1,4 59 - 0,0 0 1.013,9
04:53 8,3 5,4 7,1 82,0 1,3 79 - 0,0 0 1.014,0
04:52 8,3 5,4 7,1 82,0 1,2 76 - 0,0 0 1.013,9
04:51 8,3 5,4 7,1 82,0 1,0 71 - 0,0 0 1.013,9
04:50 8,4 5,5 7,2 82,0 0,8 71 - 0,0 0 1.014,0
04:49 8,4 5,5 7,2 82,0 0,7 71 - 0,0 0 1.013,9
04:48 8,4 5,5 7,2 82,0 0,9 71 - 0,0 0 1.014,0
04:47 8,5 5,6 7,3 82,0 1,0 71 - 0,0 0 1.014,0
04:46 8,5 5,6 7,3 82,0 0,9 70 - 0,0 0 1.014,0
04:45 8,5 5,6 7,3 82,0 0,9 36 - 0,0 0 1.014,0
04:44 8,5 5,6 7,3 82,0 0,9 69 - 0,0 0 1.014,0
04:43 8,5 5,6 7,3 82,0 0,9 67 - 0,0 0 1.013,9
04:42 8,6 5,7 7,4 82,0 1,0 60 - 0,0 0 1.013,9
04:41 8,6 5,7 7,4 82,0 1,1 60 - 0,0 0 1.013,9
04:40 8,6 5,7 7,4 82,0 1,1 15 - 0,0 0 1.013,9
04:39 8,6 5,7 7,4 82,0 1,1 70 - 0,0 0 1.013,9
04:38 8,6 5,7 7,4 82,0 1,3 70 - 0,0 0 1.013,9
04:37 8,7 5,8 7,5 82,0 1,4 70 - 0,0 0 1.013,9
04:36 8,7 5,8 7,5 82,0 1,3 61 - 0,0 0 1.013,9
04:35 8,8 5,9 7,6 82,0 1,4 53 - 0,0 0 1.013,9
04:34 8,7 5,9 7,5 82,0 1,6 40 - 0,0 0 1.013,9
04:33 8,8 5,9 7,6 82,0 1,8 52 - 0,0 0 1.013,8
04:32 8,8 5,9 7,6 82,0 1,8 44 - 0,0 0 1.013,9
04:31 8,8 5,9 7,6 82,0 1,8 45 - 0,0 0 1.013,9
04:30 8,8 5,9 7,6 82,0 2,0 61 - 0,0 0 1.013,8
04:29 8,8 5,9 7,6 82,0 2,1 47 - 0,0 0 1.013,8
04:28 8,9 6,0 7,7 82,0 1,9 56 - 0,0 0 1.013,8
04:27 8,9 6,0 7,7 82,0 1,8 51 - 0,0 0 1.013,8
04:26 8,9 6,0 7,7 82,0 1,8 44 - 0,0 0 1.013,8
04:25 8,9 6,0 7,7 82,0 1,7 36 - 0,0 0 1.013,8
04:24 8,9 6,0 7,7 81,9 1,8 32 - 0,0 0 1.013,8
04:23 8,9 5,9 7,6 81,0 1,8 49 - 0,0 0 1.013,8
04:22 9,0 5,9 7,7 81,0 2,0 63 - 0,0 0 1.013,9
04:21 9,0 5,9 7,7 81,0 1,8 43 - 0,0 0 1.013,9
04:20 9,0 5,9 7,7 81,0 2,0 16 - 0,0 0 1.013,8
04:19 9,0 5,9 7,7 81,0 2,1 33 - 0,0 0 1.013,8
04:18 9,0 6,0 7,7 81,0 2,2 45 - 0,0 0 1.013,7
04:17 9,0 6,0 7,7 81,0 2,2 30 - 0,0 0 1.013,8
04:16 9,1 6,0 7,8 81,0 2,2 49 - 0,0 0 1.013,8
04:15 9,1 6,0 7,8 81,0 2,1 46 - 0,0 0 1.013,8
04:14 9,1 6,0 7,8 81,0 1,9 57 - 0,0 0 1.013,8
04:13 9,1 6,0 7,8 81,0 1,8 41 - 0,0 0 1.013,8
04:12 9,1 6,0 7,8 81,0 1,9 39 - 0,0 0 1.013,8
04:11 9,1 6,0 7,8 81,0 2,0 38 - 0,0 0 1.013,8
04:10 9,1 6,0 7,8 81,0 1,9 34 - 0,0 0 1.013,8
04:09 9,1 6,0 7,8 81,0 1,8 38 - 0,0 0 1.013,8
04:08 9,1 6,0 7,8 81,0 1,9 47 - 0,0 0 1.013,7
04:07 9,1 6,0 7,8 81,0 2,4 17 - 0,0 0 1.013,8
04:06 9,1 6,0 7,8 81,0 2,6 29 - 0,0 0 1.013,8
04:05 9,1 6,0 7,8 81,0 2,4 14 - 0,0 0 1.013,7
04:04 9,1 6,0 7,8 81,0 2,2 11 - 0,0 0 1.013,7
04:03 9,1 6,0 7,8 81,0 2,0 4 - 0,0 0 1.013,7
04:02 9,1 6,0 7,8 81,0 2,0 45 - 0,0 0 1.013,7
04:01 9,1 6,0 7,8 81,0 2,3 9 - 0,0 0 1.013,8
04:00 9,1 6,0 7,8 81,0 2,5 12 - 0,0 0 1.013,7
 
03:59 9,1 6,0 7,8 81,0 2,2 25 - 0,0 0 1.013,7
03:58 9,1 6,1 7,8 81,0 1,9 35 - 0,0 0 1.013,7
03:57 9,2 6,1 7,9 81,0 1,7 60 - 0,0 0 1.013,7
03:56 9,2 6,1 7,9 81,0 1,8 37 - 0,0 0 1.013,7
03:55 9,1 6,1 7,8 81,0 2,0 69 - 0,0 0 1.013,7
03:54 9,1 6,0 7,8 81,0 2,3 20 - 0,0 0 1.013,6
03:53 9,1 6,0 7,8 80,7 2,4 36 - 0,0 0 1.013,7
03:52 9,2 6,0 7,8 80,5 2,3 30 - 0,0 0 1.013,7
03:51 9,1 6,0 7,8 80,4 2,4 22 - 0,0 0 1.013,7
03:50 9,2 5,9 7,8 80,0 2,6 14 - 0,0 0 1.013,6
03:49 9,2 5,9 7,8 80,0 2,8 340 - 0,0 0 1.013,6
03:48 9,2 5,9 7,8 80,0 2,8 20 - 0,0 0 1.013,6
03:47 9,2 5,9 7,8 80,0 3,0 34 - 0,0 0 1.013,6
03:46 9,2 5,9 7,8 80,0 2,9 350 - 0,0 0 1.013,6
03:45 9,2 5,9 7,8 80,0 2,7 27 - 0,0 0 1.013,6
03:44 9,2 5,9 7,8 80,0 2,4 7 - 0,0 0 1.013,6
03:43 9,2 5,9 7,8 80,0 2,1 334 - 0,0 0 1.013,6
03:42 9,2 5,9 7,8 80,0 2,0 64 - 0,0 0 1.013,6
03:41 9,2 6,0 7,8 80,0 2,2 52 - 0,0 0 1.013,6
03:40 9,2 5,9 7,8 80,0 2,0 32 - 0,0 0 1.013,6
03:39 9,2 6,0 7,8 80,0 1,9 40 - 0,0 0 1.013,6
03:38 9,2 6,0 7,8 80,0 2,0 25 - 0,0 0 1.013,6
03:37 9,2 6,0 7,8 80,0 2,2 51 - 0,0 0 1.013,6
03:36 9,2 5,9 7,8 80,0 2,6 18 - 0,0 0 1.013,5
03:35 9,2 5,9 7,8 80,0 2,9 12 - 0,0 0 1.013,5
03:34 9,2 5,9 7,8 80,0 2,8 15 - 0,0 0 1.013,5
03:33 9,2 5,9 7,8 80,0 2,6 18 - 0,0 0 1.013,5
03:32 9,2 5,9 7,8 80,0 2,6 31 - 0,0 0 1.013,6
03:31 9,2 5,9 7,8 80,0 2,9 4 - 0,0 0 1.013,6
03:30 9,1 5,9 7,7 80,0 3,3 6 - 0,0 0 1.013,6
03:29 9,1 5,8 7,7 79,6 3,4 34 - 0,0 0 1.013,5
03:28 9,1 5,7 7,6 79,0 3,0 59 - 0,0 0 1.013,6
03:27 9,1 5,7 7,6 79,0 2,7 355 - 0,0 0 1.013,5
03:26 9,1 5,6 7,6 79,0 2,9 345 - 0,0 0 1.013,6
03:25 9,1 5,6 7,6 79,0 2,8 24 - 0,0 0 1.013,6
03:24 9,0 5,6 7,5 79,0 2,8 14 - 0,0 0 1.013,5
03:23 9,0 5,6 7,5 79,0 2,7 22 - 0,0 0 1.013,5
03:22 8,9 5,4 7,4 78,4 2,1 24 - 0,0 0 1.013,5
03:21 8,9 5,3 7,4 78,0 1,6 21 - 0,0 0 1.013,6
03:20 8,9 5,3 7,4 78,0 1,8 25 - 0,0 0 1.013,6
03:19 8,9 5,3 7,4 78,0 1,9 20 - 0,0 0 1.013,6
03:18 8,9 5,3 7,4 78,0 1,9 33 - 0,0 0 1.013,5
03:17 8,9 5,3 7,4 78,0 1,7 30 - 0,0 0 1.013,6
03:16 8,9 5,3 7,3 78,0 1,7 53 - 0,0 0 1.013,6
03:15 8,9 5,3 7,4 78,0 1,8 36 - 0,0 0 1.013,5
03:14 8,9 5,3 7,3 78,0 1,9 35 - 0,0 0 1.013,5
03:13 8,9 5,3 7,3 78,0 2,1 45 - 0,0 0 1.013,6
03:12 8,9 5,3 7,3 78,0 2,3 24 - 0,0 0 1.013,5
03:11 8,9 5,3 7,3 78,0 2,4 34 - 0,0 0 1.013,5
03:10 8,9 5,3 7,3 78,0 2,5 36 - 0,0 0 1.013,5
03:09 8,9 5,3 7,3 78,0 2,4 35 - 0,0 0 1.013,5
03:08 8,9 5,3 7,3 78,0 2,2 42 - 0,0 0 1.013,5
03:07 8,9 5,3 7,4 78,0 2,0 47 - 0,0 0 1.013,5
03:06 8,9 5,3 7,4 78,0 1,9 49 - 0,0 0 1.013,4
03:05 8,9 5,3 7,4 78,0 1,9 53 - 0,0 0 1.013,4
03:04 8,9 5,3 7,4 78,0 1,9 56 - 0,0 0 1.013,5
03:03 8,9 5,3 7,4 78,0 2,0 35 - 0,0 0 1.013,5
03:02 8,9 5,3 7,4 78,0 2,2 52 - 0,0 0 1.013,5
03:01 8,9 5,3 7,4 78,0 2,5 34 - 0,0 0 1.013,4
03:00 8,9 5,3 7,4 78,0 2,7 72 - 0,0 0 1.013,5
 
02:59 8,9 5,3 7,4 78,0 2,8 35 - 0,0 0 1.013,5
02:58 8,9 5,3 7,4 78,0 2,8 26 - 0,0 0 1.013,5
02:57 8,9 5,3 7,4 78,0 2,8 46 - 0,0 0 1.013,5
02:56 8,9 5,3 7,4 78,0 2,8 22 - 0,0 0 1.013,5
02:55 8,9 5,3 7,3 78,0 2,9 43 - 0,0 0 1.013,5
02:54 8,9 5,3 7,3 78,4 2,9 37 - 0,0 0 1.013,5
02:53 8,9 5,4 7,4 78,5 2,8 41 - 0,0 0 1.013,5
02:52 8,9 5,3 7,3 78,0 2,7 24 - 0,0 0 1.013,5
02:51 8,9 5,4 7,4 78,9 2,7 30 - 0,0 0 1.013,5
02:50 8,9 5,4 7,4 79,0 2,5 38 - 0,0 0 1.013,5
02:49 8,9 5,5 7,4 79,0 2,5 21 - 0,0 0 1.013,5
02:48 8,9 5,5 7,4 79,0 2,5 22 - 0,0 0 1.013,5
02:47 8,9 5,5 7,4 79,0 2,6 36 - 0,0 0 1.013,5
02:46 8,9 5,5 7,4 79,0 2,5 30 - 0,0 0 1.013,5
02:45 8,9 5,5 7,4 79,0 2,4 42 - 0,0 0 1.013,5
02:44 8,9 5,5 7,4 79,0 2,3 34 - 0,0 0 1.013,5
02:43 8,9 5,5 7,4 79,0 2,2 16 - 0,0 0 1.013,5
02:42 8,9 5,5 7,4 79,0 2,2 65 - 0,0 0 1.013,5
02:41 8,9 5,5 7,4 79,0 2,3 20 - 0,0 0 1.013,5
02:40 8,9 5,5 7,4 79,0 2,5 27 - 0,0 0 1.013,5
02:39 8,9 5,5 7,4 79,0 2,4 38 - 0,0 0 1.013,5
02:38 8,9 5,4 7,4 79,0 2,2 59 - 0,0 0 1.013,5
02:37 8,9 5,5 7,4 79,0 2,2 23 - 0,0 0 1.013,5
02:36 8,9 5,4 7,4 79,0 2,5 46 - 0,0 0 1.013,5
02:35 8,8 5,4 7,4 79,0 2,6 36 - 0,0 0 1.013,5
02:34 8,8 5,4 7,4 79,0 2,5 33 - 0,0 0 1.013,5
02:33 8,8 5,4 7,4 79,0 2,5 49 - 0,0 0 1.013,5
02:32 8,8 5,4 7,3 79,0 2,7 22 - 0,0 0 1.013,5
02:31 8,8 5,4 7,3 79,0 2,6 34 - 0,0 0 1.013,5
02:30 8,8 5,4 7,3 79,0 2,4 70 - 0,0 0 1.013,5
02:29 8,8 5,4 7,3 79,0 2,4 359 - 0,0 0 1.013,5
02:28 8,8 5,4 7,3 79,0 2,5 43 - 0,0 0 1.013,4
02:27 8,8 5,4 7,3 79,0 2,6 49 - 0,0 0 1.013,4
02:26 8,8 5,4 7,3 79,0 2,6 35 - 0,0 0 1.013,4
02:25 8,8 5,4 7,3 79,0 2,8 32 - 0,0 0 1.013,4
02:24 8,8 5,4 7,3 79,0 2,6 43 - 0,0 0 1.013,4
02:23 8,8 5,4 7,3 79,0 2,3 57 - 0,0 0 1.013,4
02:22 8,8 5,4 7,3 79,0 2,0 38 - 0,0 0 1.013,4
02:21 8,8 5,4 7,3 79,0 2,3 44 - 0,0 0 1.013,4
02:20 8,7 5,3 7,3 79,0 2,7 37 - 0,0 0 1.013,4
02:19 8,7 5,3 7,3 79,0 2,9 72 - 0,0 0 1.013,4
02:18 8,7 5,3 7,3 79,0 2,8 38 - 0,0 0 1.013,4
02:17 8,7 5,3 7,2 79,0 2,2 19 - 0,0 0 1.013,3
02:16 8,7 5,3 7,2 79,0 2,0 113 - 0,0 0 1.013,3
02:15 8,7 5,3 7,2 79,0 2,4 37 - 0,0 0 1.013,4
02:14 8,7 5,3 7,2 79,0 3,0 39 - 0,0 0 1.013,3
02:13 8,7 5,4 7,3 79,6 2,9 43 - 0,0 0 1.013,3
02:12 8,7 5,5 7,3 80,0 2,8 42 - 0,0 0 1.013,3
02:11 8,7 5,5 7,3 80,0 2,9 34 - 0,0 0 1.013,3
02:10 8,7 5,5 7,3 80,0 2,9 51 - 0,0 0 1.013,3
02:09 8,7 5,5 7,3 80,0 2,6 66 - 0,0 0 1.013,4
02:08 8,7 5,5 7,3 80,0 2,4 26 - 0,0 0 1.013,4
02:07 8,7 5,4 7,3 80,0 2,4 28 - 0,0 0 1.013,4
02:06 8,7 5,4 7,3 80,0 2,7 54 - 0,0 0 1.013,4
02:05 8,7 5,4 7,3 80,0 2,7 45 - 0,0 0 1.013,4
02:04 8,7 5,4 7,3 80,0 2,3 32 - 0,0 0 1.013,4
02:03 8,7 5,4 7,3 80,0 2,1 43 - 0,0 0 1.013,4
02:02 8,7 5,4 7,3 80,0 2,1 55 - 0,0 0 1.013,4
02:01 8,7 5,4 7,3 80,0 2,3 67 - 0,0 0 1.013,4
02:00 8,7 5,5 7,3 80,0 2,5 68 - 0,0 0 1.013,4
 
01:59 8,7 5,5 7,4 80,0 2,7 48 - 0,0 0 1.013,4
01:58 8,7 5,5 7,3 80,0 2,8 65 - 0,0 0 1.013,4
01:57 8,7 5,5 7,3 80,0 2,8 61 - 0,0 0 1.013,4
01:56 8,7 5,5 7,3 80,0 2,9 70 - 0,0 0 1.013,4
01:55 8,8 5,5 7,4 80,0 3,1 59 - 0,0 0 1.013,4
01:54 8,8 5,5 7,4 80,0 3,3 63 - 0,0 0 1.013,5
01:53 8,8 5,5 7,4 80,0 3,1 51 - 0,0 0 1.013,5
01:52 8,8 5,5 7,4 80,0 2,8 44 - 0,0 0 1.013,5
01:51 8,8 5,5 7,4 80,0 2,8 52 - 0,0 0 1.013,4
01:50 8,7 5,5 7,3 80,0 2,8 29 - 0,0 0 1.013,4
01:49 8,8 5,5 7,4 80,0 2,7 61 - 0,0 0 1.013,4
01:48 8,8 5,5 7,4 80,0 2,7 34 - 0,0 0 1.013,5
01:47 8,8 5,5 7,4 80,0 3,0 47 - 0,0 0 1.013,5
01:46 8,8 5,5 7,4 80,0 2,9 59 - 0,0 0 1.013,5
01:45 8,8 5,5 7,4 80,0 2,8 30 - 0,0 0 1.013,4
01:44 8,8 5,5 7,4 80,0 2,8 30 - 0,0 0 1.013,5
01:43 8,8 5,5 7,4 80,0 3,1 60 - 0,0 0 1.013,5
01:42 8,8 5,5 7,4 80,0 3,4 68 - 0,0 0 1.013,5
01:41 8,8 5,5 7,4 80,0 3,5 55 - 0,0 0 1.013,4
01:40 8,8 5,5 7,4 80,0 3,7 37 - 0,0 0 1.013,4
01:39 8,8 5,5 7,4 80,0 3,7 47 - 0,0 0 1.013,4
01:38 8,8 5,5 7,4 80,0 3,2 33 - 0,0 0 1.013,4
01:37 8,8 5,5 7,4 80,0 2,8 50 - 0,0 0 1.013,4
01:36 8,8 5,5 7,4 80,0 3,0 38 - 0,0 0 1.013,4
01:35 8,8 5,6 7,4 80,0 3,3 31 - 0,0 0 1.013,4
01:34 8,8 5,5 7,4 80,0 3,5 37 - 0,0 0 1.013,4
01:33 8,8 5,6 7,4 80,0 3,2 53 - 0,0 0 1.013,4
01:32 8,8 5,6 7,4 80,0 3,0 66 - 0,0 0 1.013,4
01:31 8,8 5,6 7,4 80,0 3,0 48 - 0,0 0 1.013,4
01:30 8,8 5,6 7,4 80,0 3,3 57 - 0,0 0 1.013,4
01:29 8,8 5,6 7,4 80,0 3,3 49 - 0,0 0 1.013,4
01:28 8,8 5,6 7,4 80,0 3,4 38 - 0,0 0 1.013,4
01:27 8,8 5,6 7,4 80,0 3,4 39 - 0,0 0 1.013,4
01:26 8,8 5,6 7,4 80,0 3,1 38 - 0,0 0 1.013,3
01:25 8,8 5,6 7,4 80,0 2,8 39 - 0,0 0 1.013,4
01:24 8,8 5,6 7,4 80,0 2,7 53 - 0,0 0 1.013,4
01:23 8,8 5,5 7,4 80,0 2,6 32 - 0,0 0 1.013,4
01:22 8,8 5,5 7,4 80,0 2,6 42 - 0,0 0 1.013,4
01:21 8,8 5,5 7,4 80,0 2,3 36 - 0,0 0 1.013,4
01:20 8,8 5,5 7,4 80,0 1,9 32 - 0,0 0 1.013,4
01:19 8,8 5,5 7,4 80,0 1,7 47 - 0,0 0 1.013,4
01:18 8,8 5,5 7,4 80,0 1,9 42 - 0,0 0 1.013,4
01:17 8,8 5,6 7,4 80,0 1,9 42 - 0,0 0 1.013,4
01:16 8,8 5,6 7,4 80,0 1,7 27 - 0,0 0 1.013,4
01:15 8,8 5,6 7,4 80,0 1,7 24 - 0,0 0 1.013,4
01:14 8,8 5,6 7,4 80,0 1,7 57 - 0,0 0 1.013,4
01:13 8,8 5,5 7,4 80,0 1,8 36 - 0,0 0 1.013,4
01:12 8,8 5,5 7,4 80,0 1,8 43 - 0,0 0 1.013,3
01:11 8,8 5,5 7,4 80,0 1,8 53 - 0,0 0 1.013,3
01:10 8,8 5,5 7,4 80,0 1,8 45 - 0,0 0 1.013,4
01:09 8,8 5,5 7,4 80,0 1,8 49 - 0,0 0 1.013,4
01:08 8,8 5,5 7,4 80,0 1,7 35 - 0,0 0 1.013,4
01:07 8,8 5,5 7,4 80,0 1,5 43 - 0,0 0 1.013,3
01:06 8,8 5,5 7,4 80,0 1,3 45 - 0,0 0 1.013,4
01:05 8,8 5,5 7,4 80,0 1,3 51 - 0,0 0 1.013,4
01:04 8,8 5,5 7,4 80,0 1,2 45 - 0,0 0 1.013,3
01:03 8,7 5,5 7,4 80,0 1,2 64 - 0,0 0 1.013,3
01:02 8,8 5,5 7,4 80,0 1,2 57 - 0,0 0 1.013,3
01:01 8,8 5,5 7,4 80,0 1,3 60 - 0,0 0 1.013,3
01:00 8,8 5,5 7,4 80,0 1,4 46 - 0,0 0 1.013,3
 
00:59 8,8 5,5 7,4 80,0 1,4 51 - 0,0 0 1.013,3
00:58 8,8 5,5 7,4 80,0 1,4 60 - 0,0 0 1.013,3
00:57 8,8 5,5 7,4 79,6 1,4 51 - 0,0 0 1.013,3
00:56 8,8 5,4 7,3 79,0 1,3 36 - 0,0 0 1.013,3
00:55 8,8 5,4 7,3 79,0 1,2 58 - 0,0 0 1.013,3
00:54 8,8 5,4 7,3 79,0 1,1 74 - 0,0 0 1.013,3
00:53 8,8 5,4 7,3 79,0 1,2 51 - 0,0 0 1.013,3
00:52 8,8 5,4 7,4 79,0 1,5 57 - 0,0 0 1.013,3
00:51 8,8 5,4 7,4 79,0 1,6 71 - 0,0 0 1.013,3
00:50 8,8 5,4 7,4 79,0 1,4 57 - 0,0 0 1.013,3
00:49 8,8 5,4 7,4 79,0 1,5 62 - 0,0 0 1.013,3
00:48 8,8 5,4 7,4 79,0 1,9 47 - 0,0 0 1.013,3
00:47 8,9 5,5 7,4 79,0 2,1 65 - 0,0 0 1.013,3
00:46 8,9 5,5 7,4 79,0 1,8 64 - 0,0 0 1.013,3
00:45 8,9 5,5 7,4 79,0 1,4 61 - 0,0 0 1.013,3
00:44 8,9 5,5 7,4 79,0 1,2 58 - 0,0 0 1.013,3
00:43 8,9 5,5 7,4 79,0 1,3 69 - 0,0 0 1.013,3
00:42 8,9 5,5 7,5 79,0 1,4 69 - 0,0 0 1.013,3
00:41 8,9 5,5 7,5 79,0 1,4 56 - 0,0 0 1.013,2
00:40 8,9 5,5 7,5 79,0 1,7 61 - 0,0 0 1.013,2
00:39 9,0 5,5 7,5 79,0 1,9 51 - 0,0 0 1.013,2
00:38 9,0 5,5 7,5 79,0 1,9 55 - 0,0 0 1.013,2
00:37 9,0 5,6 7,5 79,0 1,7 74 - 0,0 0 1.013,2
00:36 9,0 5,4 7,4 78,1 1,7 53 - 0,0 0 1.013,2
00:35 9,0 5,4 7,4 78,0 1,6 55 - 0,0 0 1.013,2
00:34 9,0 5,4 7,4 78,0 1,6 57 - 0,0 0 1.013,2
00:33 9,0 5,4 7,5 78,0 1,8 80 - 0,0 0 1.013,2
00:32 9,1 5,4 7,5 78,0 1,8 59 - 0,0 0 1.013,2
00:31 9,1 5,4 7,5 78,0 2,0 37 - 0,0 0 1.013,2
00:30 9,1 5,4 7,5 78,0 2,0 77 - 0,0 0 1.013,2
00:29 9,1 5,5 7,5 78,0 2,0 59 - 0,0 0 1.013,2
00:28 9,1 5,5 7,5 78,0 1,7 57 - 0,0 0 1.013,1
00:27 9,1 5,5 7,5 78,0 1,7 71 - 0,0 0 1.013,2
00:26 9,1 5,5 7,5 78,0 1,8 66 - 0,0 0 1.013,1
00:25 9,1 5,5 7,5 78,0 1,8 59 - 0,0 0 1.013,1
00:24 9,1 5,5 7,5 78,0 1,6 82 - 0,0 0 1.013,2
00:23 9,1 5,5 7,5 78,0 1,5 55 - 0,0 0 1.013,2
00:22 9,2 5,6 7,6 78,0 1,7 78 - 0,0 0 1.013,1
00:21 9,2 5,6 7,6 78,0 1,8 51 - 0,0 0 1.013,1
00:20 9,2 5,6 7,6 78,0 1,9 56 - 0,0 0 1.013,1
00:19 9,2 5,6 7,6 78,0 1,9 57 - 0,0 0 1.013,1
00:18 9,2 5,6 7,6 78,0 1,8 61 - 0,0 0 1.013,1
00:17 9,2 5,6 7,6 78,0 1,8 79 - 0,0 0 1.013,1
00:16 9,2 5,6 7,6 78,0 1,9 54 - 0,0 0 1.013,1
00:15 9,2 5,6 7,6 78,0 1,9 85 - 0,0 0 1.013,1
00:14 9,2 5,6 7,7 78,0 1,9 68 - 0,0 0 1.013,1
00:13 9,3 5,7 7,7 78,0 2,0 71 - 0,0 0 1.013,1
00:12 9,3 5,6 7,7 77,7 2,0 78 - 0,0 0 1.013,1
00:11 9,3 5,5 7,6 77,0 2,0 64 - 0,0 0 1.013,1
00:10 9,3 5,5 7,7 77,0 2,0 79 - 0,0 0 1.013,1
00:09 9,3 5,5 7,7 77,0 2,1 64 - 0,0 0 1.013,1
00:08 9,4 5,6 7,7 77,0 2,0 78 - 0,0 0 1.013,1
00:07 9,4 5,6 7,7 77,0 1,9 67 - 0,0 0 1.013,1
00:06 9,4 5,6 7,7 77,0 1,8 51 - 0,0 0 1.013,1
00:05 9,4 5,6 7,7 77,0 2,0 71 - 0,0 0 1.013,1
00:04 9,4 5,6 7,8 77,0 2,2 51 - 0,0 0 1.013,0
00:03 9,4 5,6 7,8 77,0 2,1 75 - 0,0 0 1.013,1
00:02 9,5 5,7 7,8 77,0 1,9 58 - 0,0 0 1.013,1
00:01 9,5 5,7 7,8 77,0 1,9 59 - 0,0 0 1.013,0
00:00 9,5 5,7 7,8 77,0 2,1 76 - 0,0 0 1.013,1
 
23:59 9,6 5,8 7,9 77,0 2,1 63 - 0,0 0 1.013,1
23:58 9,6 5,8 7,9 77,0 2,1 61 - 0,0 0 1.013,0
23:57 9,6 5,8 7,9 77,0 2,0 40 - 0,0 0 1.013,0
23:56 9,6 5,8 7,9 77,0 2,1 62 - 0,0 0 1.013,0
23:55 9,6 5,8 7,9 77,0 2,2 42 - 0,0 0 1.013,0
23:54 9,7 5,8 8,0 77,0 2,5 64 - 0,0 0 1.013,1
23:53 9,7 5,9 8,0 77,0 2,4 53 - 0,0 0 1.013,0
23:52 9,7 5,9 8,0 77,0 2,4 75 - 0,0 0 1.013,0
23:51 9,7 5,9 8,0 77,0 2,6 58 - 0,0 0 1.013,0
23:50 9,7 5,9 8,0 77,0 2,6 79 - 0,0 0 1.013,0
23:49 9,7 5,9 8,0 77,0 2,5 38 - 0,0 0 1.013,0
23:48 9,8 5,9 8,1 77,0 2,6 68 - 0,0 0 1.013,0
23:47 9,8 6,0 8,1 77,0 2,9 49 - 0,0 0 1.013,0
23:46 9,8 6,0 8,1 77,0 2,9 61 - 0,0 0 1.013,0
23:45 9,8 6,0 8,1 77,0 3,2 53 - 0,0 0 1.013,0
23:44 9,8 6,0 8,1 77,0 3,6 31 - 0,0 0 1.012,9
23:43 9,9 5,9 8,1 76,1 3,6 49 - 0,0 0 1.012,9
23:42 9,9 5,9 8,1 76,0 3,3 54 - 0,0 0 1.012,9
23:41 9,9 5,9 8,1 76,0 3,1 76 - 0,0 0 1.012,9
23:40 9,9 5,9 8,1 76,0 2,7 78 - 0,0 0 1.012,9
23:39 9,9 5,9 8,2 76,0 2,7 61 - 0,0 0 1.013,0
23:38 10,0 6,0 8,2 76,0 3,3 60 - 0,0 0 1.012,9
23:37 10,0 6,0 8,2 76,0 3,7 54 - 0,0 0 1.013,0
23:36 10,0 6,0 8,2 76,0 3,5 39 - 0,0 0 1.013,0
23:35 10,0 6,0 8,3 76,0 3,4 54 - 0,0 0 1.013,0
23:34 10,1 6,1 8,3 76,0 3,4 43 - 0,0 0 1.013,0
23:33 10,1 6,0 8,2 75,3 3,6 68 - 0,0 0 1.013,0
23:32 10,1 5,9 8,2 75,0 3,1 59 - 0,0 0 1.013,0
23:31 10,2 6,0 8,3 75,0 2,7 68 - 0,0 0 1.013,0
23:30 10,2 6,0 8,3 75,0 2,4 82 - 0,0 0 1.013,0
23:29 10,2 6,0 8,3 75,0 2,5 53 - 0,0 0 1.013,0
23:28 10,2 6,0 8,3 75,0 2,5 49 - 0,0 0 1.012,9
23:27 10,2 6,0 8,3 75,0 2,7 28 - 0,0 0 1.012,9
23:26 10,3 6,1 8,4 75,0 3,2 37 - 0,0 0 1.013,0
23:25 10,3 6,1 8,4 75,0 3,7 47 - 0,0 0 1.012,9
23:24 10,3 6,1 8,4 75,0 3,9 48 - 0,0 0 1.012,9
23:23 10,3 6,1 8,4 75,0 3,5 37 - 0,0 0 1.012,9
23:22 10,3 6,0 8,4 74,4 3,0 41 - 0,0 0 1.012,9
23:21 10,3 5,9 8,3 74,0 2,9 53 - 0,0 0 1.012,8
23:20 10,3 6,0 8,3 74,0 3,2 49 - 0,0 0 1.012,8
23:19 10,3 5,9 8,3 74,0 3,1 52 - 0,0 0 1.012,9
23:18 10,3 6,0 8,3 74,0 3,0 60 - 0,0 0 1.012,8
23:17 10,4 6,0 8,4 74,0 2,9 51 - 0,0 0 1.012,8
23:16 10,4 6,0 8,4 74,0 3,0 43 - 0,0 0 1.012,8
23:15 10,4 6,0 8,4 74,0 3,3 78 - 0,0 0 1.012,8
23:14 10,4 5,9 8,3 73,1 3,6 59 - 0,0 0 1.012,8
23:13 10,4 5,9 8,3 73,0 3,5 61 - 0,0 0 1.012,8
23:12 10,5 5,9 8,4 73,0 3,4 28 - 0,0 0 1.012,7
23:11 10,5 5,9 8,4 73,0 3,9 24 - 0,0 0 1.012,8
23:10 10,5 6,0 8,4 73,0 3,9 51 - 0,0 0 1.012,8
23:09 10,6 6,0 8,4 73,0 3,6 55 - 0,0 0 1.012,7
23:08 10,6 6,0 8,4 73,0 3,5 39 - 0,0 0 1.012,8
23:07 10,6 6,0 8,5 73,0 3,7 42 - 0,0 0 1.012,7
23:06 10,6 6,0 8,5 73,0 3,6 14 - 0,0 0 1.012,7
23:05 10,6 6,0 8,5 73,0 3,4 53 - 0,0 0 1.012,7
23:04 10,6 6,0 8,5 73,0 3,5 53 - 0,0 0 1.012,7
23:03 10,6 5,9 8,4 72,2 3,5 16 - 0,0 0 1.012,7
23:02 10,6 5,8 8,4 72,0 3,6 57 - 0,0 0 1.012,7
23:01 10,6 5,8 8,4 72,0 3,7 41 - 0,0 0 1.012,6
23:00 10,6 5,9 8,4 72,0 3,7 49 - 0,0 0 1.012,7
 
22:59 10,7 5,9 8,5 72,0 3,5 43 - 0,0 0 1.012,7
22:58 10,7 5,9 8,5 72,0 3,2 36 - 0,0 0 1.012,7
22:57 10,7 5,9 8,5 72,0 3,2 43 - 0,0 0 1.012,7
22:56 10,7 5,9 8,5 72,0 3,7 54 - 0,0 0 1.012,7
22:55 10,7 5,9 8,5 71,8 3,9 52 - 0,0 0 1.012,7
22:54 10,8 5,8 8,4 71,0 3,7 46 - 0,0 0 1.012,6
22:53 10,8 5,8 8,5 71,0 3,5 48 - 0,0 0 1.012,6
22:52 10,8 5,8 8,5 71,0 3,2 50 - 0,0 0 1.012,6
22:51 10,8 5,8 8,5 71,0 3,0 48 - 0,0 0 1.012,6
22:50 10,8 5,8 8,5 71,0 3,0 28 - 0,0 0 1.012,6
22:49 10,8 5,8 8,5 70,7 3,2 57 - 0,0 0 1.012,6
22:48 10,8 5,6 8,4 70,0 3,4 36 - 0,0 0 1.012,6
22:47 10,8 5,6 8,4 70,0 3,6 36 - 0,0 0 1.012,5
22:46 10,8 5,6 8,4 70,0 3,7 44 - 0,0 0 1.012,6
22:45 10,8 5,6 8,4 70,0 3,8 43 - 0,0 0 1.012,6
22:44 10,8 5,6 8,4 70,0 3,9 60 - 0,0 0 1.012,6
22:43 10,8 5,6 8,4 70,0 3,7 22 - 0,0 0 1.012,7
22:42 10,8 5,5 8,4 69,6 3,4 74 - 0,0 0 1.012,6
22:41 10,9 5,5 8,3 69,0 3,0 50 - 0,0 0 1.012,6
22:40 10,9 5,5 8,3 69,0 3,2 39 - 0,0 0 1.012,6
22:39 10,9 5,5 8,3 69,0 3,4 42 - 0,0 0 1.012,6
22:38 10,9 5,5 8,4 69,0 3,5 43 - 0,0 0 1.012,5
22:37 10,9 5,5 8,4 69,0 3,6 21 - 0,0 0 1.012,5
22:36 10,9 5,5 8,4 69,0 3,8 35 - 0,0 0 1.012,5
22:35 11,0 5,5 8,4 69,0 4,0 52 - 0,0 0 1.012,5
22:34 11,0 5,6 8,5 69,0 4,5 30 - 0,0 0 1.012,4
22:33 11,0 5,6 8,5 69,0 4,6 60 - 0,0 0 1.012,5
22:32 11,0 5,6 8,5 69,0 4,4 32 - 0,0 0 1.012,5
22:31 11,1 5,6 8,5 69,0 4,3 39 - 0,0 0 1.012,5
22:30 11,1 5,7 8,5 69,0 4,1 61 - 0,0 0 1.012,5
22:29 11,1 5,7 8,6 69,0 3,7 41 - 0,0 0 1.012,5
22:28 11,1 5,7 8,6 69,0 3,4 70 - 0,0 0 1.012,5
22:27 11,1 5,7 8,6 69,0 3,7 32 - 0,0 0 1.012,4
22:26 11,1 5,7 8,6 69,0 4,0 45 - 0,0 0 1.012,4
22:25 11,2 5,7 8,6 69,0 4,1 33 - 0,0 0 1.012,4
22:24 11,2 5,6 8,6 68,5 3,7 39 - 0,0 0 1.012,3
22:23 11,2 5,5 8,5 68,0 3,2 53 - 0,0 0 1.012,4
22:22 11,2 5,6 8,5 68,0 3,1 36 - 0,0 0 1.012,3
22:21 11,2 5,6 8,6 68,0 3,9 60 - 0,0 0 1.012,3
22:20 11,3 5,6 8,6 68,0 4,5 65 - 0,0 0 1.012,3
22:19 11,3 5,7 8,6 68,0 4,2 54 - 0,0 0 1.012,3
22:18 11,3 5,7 8,7 68,0 3,7 75 - 0,0 0 1.012,4
22:17 11,3 5,7 8,7 68,0 3,6 30 - 0,0 0 1.012,3
22:16 11,4 5,7 8,7 68,0 3,7 43 - 0,0 0 1.012,3
22:15 11,4 5,7 8,7 68,0 3,8 25 - 0,0 0 1.012,3
22:14 11,4 5,8 8,7 68,0 4,0 37 - 0,0 0 1.012,3
22:13 11,4 5,8 8,7 68,0 4,2 43 - 0,0 0 1.012,4
22:12 11,4 5,8 8,8 68,0 4,0 27 - 0,0 0 1.012,4
22:11 11,4 5,8 8,8 68,0 3,9 49 - 0,0 0 1.012,3
22:10 11,5 5,8 8,8 68,0 3,9 50 - 0,0 0 1.012,3
22:09 11,5 5,8 8,8 68,0 3,8 67 - 0,0 0 1.012,3
22:08 11,5 5,9 8,8 68,0 3,7 44 - 0,0 0 1.012,4
22:07 11,5 5,9 8,8 68,0 3,9 34 - 0,0 0 1.012,3
22:06 11,5 5,7 8,8 67,5 4,6 70 - 0,0 0 1.012,4
22:05 11,5 5,7 8,8 67,0 4,9 49 - 0,0 0 1.012,4
22:04 11,6 5,7 8,8 67,0 4,2 50 - 0,0 0 1.012,4
22:03 11,6 5,8 8,8 67,3 3,4 45 - 0,0 0 1.012,3
22:02 11,6 5,9 8,9 67,7 3,2 51 - 0,0 0 1.012,3
22:01 11,6 5,8 8,8 67,0 3,2 57 - 0,0 0 1.012,3
22:00 11,6 5,8 8,8 67,0 3,1 37 - 0,0 0 1.012,3
 
21:59 11,6 5,8 8,8 67,0 3,2 39 - 0,0 0 1.012,2
21:58 11,6 5,8 8,8 67,0 3,3 55 - 0,0 0 1.012,2
21:57 11,7 5,8 8,9 67,0 3,9 42 - 0,0 0 1.012,2
21:56 11,7 5,8 8,9 67,0 4,3 34 - 0,0 0 1.012,1
21:55 11,7 5,8 8,9 67,0 4,3 39 - 0,0 0 1.012,1
21:54 11,7 5,8 8,9 67,0 4,0 22 - 0,0 0 1.012,1
21:53 11,7 5,9 8,9 67,0 4,0 43 - 0,0 0 1.012,1
21:52 11,7 5,9 8,9 67,0 3,7 41 - 0,0 0 1.012,1
21:51 11,7 5,9 8,9 67,0 3,2 39 - 0,0 0 1.012,1
21:50 11,7 5,9 8,9 67,0 2,8 50 - 0,0 0 1.012,1
21:49 11,7 5,7 8,8 66,5 2,5 36 - 0,0 0 1.012,1
21:48 11,7 5,8 8,9 66,7 2,7 38 - 0,0 0 1.012,0
21:47 11,7 5,7 8,8 66,2 3,3 56 - 0,0 0 1.012,0
21:46 11,7 5,6 8,8 66,0 3,7 37 - 0,0 0 1.012,0
21:45 11,7 5,6 8,8 66,0 3,8 36 - 0,0 0 1.012,0
21:44 11,7 5,6 8,8 66,0 3,4 17 - 0,0 0 1.012,0
21:43 11,7 5,5 8,7 65,5 3,0 57 - 0,0 0 1.012,0
21:42 11,7 5,4 8,7 65,0 3,1 34 - 0,0 0 1.012,0
21:41 11,7 5,4 8,7 65,0 3,1 65 - 0,0 0 1.012,0
21:40 11,7 5,4 8,7 65,0 3,0 101 - 0,0 0 1.012,0
21:39 11,7 5,4 8,7 65,0 2,6 55 - 0,0 0 1.012,0
21:38 11,7 5,4 8,7 65,0 3,0 49 - 0,0 0 1.012,0
21:37 11,7 5,4 8,7 65,0 3,4 44 - 0,0 0 1.011,9
21:36 11,7 5,4 8,7 65,0 3,8 41 - 0,0 0 1.011,9
21:35 11,7 5,4 8,7 65,0 3,8 32 - 0,0 0 1.011,9
21:34 11,7 5,4 8,7 65,0 3,6 54 - 0,0 0 1.011,9
21:33 11,7 5,4 8,7 65,0 3,6 51 - 0,0 0 1.011,9
21:32 11,7 5,4 8,7 65,0 3,8 49 - 0,0 0 1.011,8
21:31 11,8 5,5 8,7 65,0 4,2 60 - 0,0 0 1.011,8
21:30 11,8 5,5 8,7 65,0 4,2 66 - 0,0 0 1.011,8
21:29 11,8 5,5 8,8 65,0 3,7 40 - 0,0 0 1.011,8
21:28 11,8 5,3 8,7 64,1 3,5 47 - 0,0 0 1.011,8
21:27 11,8 5,3 8,7 64,0 3,7 57 - 0,0 0 1.011,8
21:26 11,8 5,3 8,7 64,0 3,8 42 - 0,0 0 1.011,8
21:25 11,8 5,3 8,7 64,0 3,7 48 - 0,0 0 1.011,8
21:24 11,9 5,3 8,7 64,0 3,6 59 - 0,0 0 1.011,7
21:23 11,9 5,4 8,7 64,0 3,8 37 - 0,0 0 1.011,7
21:22 11,9 5,4 8,7 64,0 4,1 38 - 0,0 0 1.011,7
21:21 11,9 5,4 8,8 64,0 4,7 66 - 0,0 0 1.011,7
21:20 11,9 5,4 8,8 64,0 4,9 45 - 0,0 0 1.011,6
21:19 11,9 5,4 8,8 64,0 4,6 49 - 0,0 0 1.011,6
21:18 12,0 5,4 8,8 64,0 4,1 46 - 0,0 0 1.011,6
21:17 12,0 5,4 8,8 64,0 4,0 14 - 0,0 0 1.011,6
21:16 12,0 5,4 8,8 64,0 4,2 41 - 0,0 3 1.011,6
21:15 11,9 5,4 8,8 64,0 3,9 32 - 0,0 5 1.011,6
21:14 12,0 5,4 8,8 64,0 3,8 28 - 0,0 5 1.011,5
21:13 12,0 5,4 8,8 64,0 3,9 31 - 0,0 7 1.011,5
21:12 12,0 5,5 8,8 64,0 4,4 28 - 0,0 7 1.011,5
21:11 12,0 5,5 8,9 64,0 4,3 34 - 0,0 7 1.011,5
21:10 12,0 5,5 8,9 64,0 4,0 55 - 0,0 8 1.011,4
21:09 12,0 5,5 8,9 64,0 3,8 39 - 0,0 9 1.011,4
21:08 12,0 5,4 8,8 63,5 4,3 34 - 0,0 9 1.011,5
21:07 12,1 5,4 8,9 63,7 4,5 33 - 0,0 9 1.011,4
21:06 12,1 5,5 8,9 64,0 4,3 68 - 0,0 11 1.011,4
21:05 12,1 5,5 8,9 64,0 3,9 25 - 0,0 11 1.011,4
21:04 12,1 5,6 8,9 64,0 4,1 32 - 0,0 11 1.011,4
21:03 12,1 5,6 8,9 64,0 4,3 50 - 0,0 11 1.011,4
21:02 12,1 5,6 8,9 64,0 4,6 43 - 0,0 12 1.011,3
21:01 12,1 5,6 8,9 64,0 4,6 23 - 0,0 12 1.011,4
21:00 12,1 5,6 8,9 64,0 4,8 5 - 0,0 14 1.011,3
 
20:59 12,1 5,6 8,9 64,0 5,1 42 - 0,0 15 1.011,3
20:58 12,1 5,6 8,9 64,0 5,8 24 - 0,0 17 1.011,3
20:57 12,1 5,6 8,9 64,0 5,8 43 - 0,0 18 1.011,3
20:56 12,1 5,6 8,9 64,0 5,3 32 - 0,0 18 1.011,3
20:55 12,1 5,6 9,0 64,0 4,4 47 - 0,0 19 1.011,3
20:54 12,1 5,6 9,0 64,0 4,3 53 - 0,0 19 1.011,3
20:53 12,1 5,6 9,0 64,0 4,5 45 - 0,0 19 1.011,3
20:52 12,1 5,6 9,0 64,0 4,6 53 - 0,0 18 1.011,3
20:51 12,1 5,6 9,0 64,0 4,5 27 - 0,0 18 1.011,3
20:50 12,1 5,6 9,0 64,0 4,6 42 - 0,0 16 1.011,2
20:49 12,2 5,6 9,0 64,0 4,7 55 - 0,0 16 1.011,2
20:48 12,2 5,6 9,0 64,0 4,7 23 - 0,0 16 1.011,2
20:47 12,2 5,6 9,0 64,0 4,8 30 - 0,0 16 1.011,2
20:46 12,2 5,6 9,0 64,0 4,7 61 - 0,0 16 1.011,2
20:45 12,2 5,7 9,0 64,0 4,9 12 - 0,0 16 1.011,2
20:44 12,2 5,7 9,0 64,0 5,4 47 - 0,0 16 1.011,1
20:43 12,2 5,8 9,1 64,7 5,3 49 - 0,0 16 1.011,1
20:42 12,2 5,7 9,1 64,2 4,3 20 - 0,0 16 1.011,1
20:41 12,2 5,7 9,0 64,0 3,5 24 - 0,0 16 1.011,1
20:40 12,2 5,7 9,1 64,0 3,9 54 - 0,0 16 1.011,1
20:39 12,3 5,8 9,1 64,5 4,4 51 - 0,0 16 1.011,1
20:38 12,3 6,0 9,2 65,0 4,6 43 - 0,0 18 1.011,1
20:37 12,3 6,0 9,2 65,0 4,4 45 - 0,0 18 1.011,1
20:36 12,3 6,0 9,2 65,0 4,2 22 - 0,0 18 1.011,1
20:35 12,3 5,7 9,1 64,1 4,1 39 - 0,0 18 1.011,1
20:34 12,3 5,7 9,1 64,0 4,6 34 - 0,0 18 1.011,1
20:33 12,3 5,9 9,2 64,5 4,8 23 - 0,0 19 1.011,1
20:32 12,3 6,0 9,3 65,0 4,1 61 - 0,0 19 1.011,0
20:31 12,3 6,0 9,3 65,0 3,8 64 - 0,0 19 1.011,1
20:30 12,3 6,0 9,3 65,0 3,9 66 - 0,0 19 1.011,1
20:29 12,3 6,0 9,3 65,0 4,3 53 - 0,0 20 1.011,1
20:28 12,3 5,9 9,2 64,7 4,5 48 - 0,0 21 1.011,1
20:27 12,3 5,8 9,1 64,0 4,9 35 - 0,0 21 1.011,0
20:26 12,3 5,8 9,2 64,0 5,0 43 - 0,0 21 1.011,0
20:25 12,4 5,8 9,2 64,0 4,7 30 - 0,0 22 1.011,0
20:24 12,4 5,8 9,2 64,1 4,7 51 - 0,0 23 1.011,0
20:23 12,4 6,1 9,3 65,0 5,4 69 - 0,0 23 1.011,0
20:22 12,4 6,1 9,3 65,0 5,3 46 - 0,0 24 1.011,0
20:21 12,4 6,1 9,3 65,0 5,5 21 - 0,0 25 1.010,9
20:20 12,4 6,1 9,4 65,0 5,5 30 - 0,0 25 1.010,9
20:19 12,4 6,1 9,4 65,0 5,2 55 - 0,0 25 1.010,9
20:18 12,4 6,1 9,4 65,0 4,5 16 - 0,0 25 1.010,9
20:17 12,5 6,2 9,4 65,3 4,7 70 - 0,0 26 1.010,9
20:16 12,5 6,4 9,5 66,0 5,0 28 - 0,0 26 1.010,9
20:15 12,5 6,4 9,5 66,0 4,9 35 - 0,0 25 1.010,9
20:14 12,5 6,4 9,5 66,0 4,3 41 - 0,0 25 1.010,9
20:13 12,5 6,4 9,5 66,0 4,1 20 - 0,0 25 1.010,9
20:12 12,5 6,4 9,5 66,0 4,0 66 - 0,0 25 1.010,9
20:11 12,6 6,4 9,6 66,0 3,9 48 - 0,0 25 1.010,8
20:10 12,6 6,4 9,6 66,0 4,2 3 - 0,0 24 1.010,8
20:09 12,6 6,5 9,6 66,0 4,2 36 - 0,0 23 1.010,8
20:08 12,6 6,5 9,6 66,0 4,2 71 - 0,0 21 1.010,8
20:07 12,6 6,5 9,7 66,0 4,2 33 - 0,0 20 1.010,8
20:06 12,7 6,8 9,8 67,0 4,2 65 - 0,0 19 1.010,8
20:05 12,7 6,8 9,8 67,0 4,2 66 - 0,0 19 1.010,8
20:04 12,8 7,0 9,9 67,4 3,6 61 - 0,0 18 1.010,8
20:03 12,8 7,0 9,9 67,5 3,2 42 - 0,0 18 1.010,8
20:02 12,8 6,9 9,9 67,0 3,4 49 - 0,0 18 1.010,7
20:01 12,8 6,9 9,9 67,0 4,2 42 - 0,0 18 1.010,7
20:00 12,8 6,9 9,9 67,0 4,4 38 - 0,0 18 1.010,7
 
19:59 12,8 6,9 9,9 67,0 3,7 96 - 0,0 19 1.010,7
19:58 12,8 7,0 10,0 67,5 3,4 359 - 0,0 19 1.010,7
19:57 12,8 7,1 10,1 68,0 3,8 56 - 0,0 19 1.010,7
19:56 12,8 7,0 10,0 67,3 4,0 45 - 0,0 21 1.010,7
19:55 12,8 6,9 9,9 67,0 3,1 60 - 0,0 22 1.010,6
19:54 12,8 6,9 10,0 67,0 3,3 325 - 0,0 23 1.010,6
19:53 12,8 6,9 10,0 67,0 3,5 8 - 0,0 24 1.010,6
19:52 12,9 7,0 10,0 67,0 4,3 53 - 0,0 25 1.010,6
19:51 12,9 7,2 10,1 67,8 4,8 36 - 0,0 25 1.010,6
19:50 12,9 7,2 10,1 68,0 4,5 39 - 0,0 25 1.010,6
19:49 12,9 7,2 10,1 68,0 4,5 355 - 0,0 26 1.010,6
19:48 12,9 7,0 10,0 67,0 5,2 28 - 0,0 27 1.010,5
19:47 12,9 7,0 10,0 67,0 5,9 3 - 0,0 28 1.010,5
19:46 12,9 7,0 10,0 67,0 5,5 359 - 0,0 28 1.010,5
19:45 13,0 6,9 10,0 66,4 5,4 47 - 0,0 28 1.010,5
19:44 13,0 6,9 10,0 66,0 5,4 27 - 0,0 28 1.010,5
19:43 13,0 6,9 10,0 66,0 5,1 40 - 0,0 26 1.010,5
19:42 13,1 6,9 10,1 66,0 5,0 32 - 0,0 26 1.010,5
19:41 13,1 7,0 10,1 66,0 4,9 35 - 0,0 26 1.010,5
19:40 13,1 6,9 10,0 65,5 4,7 355 - 0,0 26 1.010,5
19:39 13,2 6,9 10,1 65,7 4,5 23 - 0,0 28 1.010,4
19:38 13,2 6,8 10,0 65,2 5,0 39 - 0,0 29 1.010,4
19:37 13,2 6,8 10,0 65,0 5,5 24 - 0,0 30 1.010,4
19:36 13,2 6,9 10,1 65,3 5,5 28 - 0,0 30 1.010,4
19:35 13,3 7,1 10,2 66,0 4,9 13 - 0,0 30 1.010,4
19:34 13,3 7,1 10,2 66,0 3,8 7 - 0,0 32 1.010,5
19:33 13,3 7,1 10,2 66,0 3,0 304 - 0,0 32 1.010,5
19:32 13,3 7,1 10,2 66,0 2,6 41 - 0,0 34 1.010,4
19:31 13,3 7,1 10,2 65,9 3,8 49 - 0,0 36 1.010,4
19:30 13,3 6,9 10,1 65,0 4,0 45 - 0,0 39 1.010,4
19:29 13,3 6,9 10,1 65,0 4,0 43 - 0,0 43 1.010,3
19:28 13,3 6,8 10,1 64,5 4,1 50 - 0,0 47 1.010,3
19:27 13,2 6,5 9,9 63,3 4,2 23 - 0,0 50 1.010,2
19:26 13,2 6,1 9,7 62,2 4,2 72 - 0,0 53 1.010,3
19:25 13,1 5,6 9,4 60,0 3,1 10 - 0,0 52 1.010,3
19:24 13,1 5,3 9,3 59,0 2,4 334 - 0,0 50 1.010,3
19:23 13,1 5,3 9,3 59,0 1,6 33 - 0,0 49 1.010,3
19:22 13,1 5,3 9,3 59,0 1,8 53 - 0,0 53 1.010,3
19:21 13,1 5,3 9,2 59,0 1,7 54 - 0,0 54 1.010,3
19:20 13,1 5,3 9,2 59,0 1,5 29 - 0,0 54 1.010,3
19:19 13,1 5,3 9,2 59,0 1,4 26 - 0,0 54 1.010,3
19:18 13,1 5,3 9,2 59,0 1,3 24 - 0,0 57 1.010,3
19:17 13,1 5,3 9,2 59,0 1,2 15 - 0,0 61 1.010,3
19:16 13,0 5,1 9,1 58,4 1,0 3 - 0,0 65 1.010,3
19:15 13,1 5,0 9,1 58,0 1,1 58 - 0,0 67 1.010,3
19:14 13,1 5,0 9,1 58,0 1,7 64 - 0,0 69 1.010,3
19:13 13,1 5,3 9,2 59,0 1,9 39 - 0,0 70 1.010,3
19:12 13,0 5,3 9,2 59,0 1,6 62 - 0,0 70 1.010,2
19:11 13,0 5,1 9,1 58,6 1,2 49 - 0,0 70 1.010,3
19:10 13,0 5,0 9,1 58,0 1,3 51 - 0,0 70 1.010,3
19:09 13,0 5,0 9,1 58,0 1,7 64 - 0,0 70 1.010,2
19:08 13,0 5,0 9,1 58,0 1,8 49 - 0,0 70 1.010,2
19:07 13,0 5,0 9,1 58,0 2,0 83 - 0,0 70 1.010,3
19:06 13,0 5,0 9,1 58,0 2,7 54 - 0,0 70 1.010,3
19:05 13,0 5,0 9,1 58,0 3,4 74 - 0,0 70 1.010,2
19:04 13,0 5,0 9,1 58,0 3,3 84 - 0,0 70 1.010,2
19:03 13,0 4,8 9,0 57,3 3,2 76 - 0,0 69 1.010,2
19:02 13,0 4,7 8,9 57,0 3,1 95 - 0,0 69 1.010,2
19:01 13,0 4,7 9,0 57,0 3,0 70 - 0,0 68 1.010,2
19:00 13,0 4,7 8,9 57,0 3,2 85 - 0,0 66 1.010,3
 
18:59 13,0 4,7 9,0 57,0 3,7 82 - 0,0 62 1.010,3
18:58 13,0 4,8 9,0 57,0 3,7 78 - 0,0 60 1.010,3
18:57 13,1 4,8 9,0 57,0 3,2 91 - 0,0 58 1.010,2
18:56 13,0 4,5 8,9 56,2 3,0 85 - 0,0 59 1.010,3
18:55 13,1 4,8 9,0 57,0 3,0 86 - 0,0 60 1.010,2
18:54 13,1 4,7 9,0 56,7 3,0 68 - 0,0 59 1.010,3
18:53 13,1 4,6 8,9 56,0 2,6 79 - 0,0 54 1.010,3
18:52 13,1 4,6 8,9 56,0 2,2 40 - 0,0 51 1.010,2
18:51 13,1 4,6 8,9 56,0 2,5 71 - 0,0 46 1.010,3
18:50 13,1 4,6 8,9 56,0 3,4 87 - 0,0 44 1.010,3
18:49 13,1 4,6 8,9 56,0 4,0 89 - 0,0 44 1.010,3
18:48 13,1 4,5 8,9 55,6 4,2 51 - 0,0 46 1.010,3
18:47 13,1 4,3 8,8 55,0 4,1 66 - 0,0 46 1.010,2
18:46 13,2 4,3 8,8 55,0 3,5 86 - 0,0 47 1.010,2
18:45 13,2 4,4 8,9 55,0 2,9 62 - 0,0 47 1.010,3
18:44 13,2 4,3 8,8 55,0 2,7 98 - 0,0 47 1.010,2
18:43 13,2 4,3 8,8 55,0 3,5 76 - 0,0 47 1.010,2
18:42 13,2 4,5 8,9 55,4 3,9 78 - 0,0 49 1.010,2
18:41 13,1 4,4 8,9 55,5 3,9 101 - 0,0 49 1.010,2
18:40 13,1 4,3 8,8 55,0 3,4 105 - 0,0 53 1.010,2
18:39 13,1 4,3 8,8 55,0 3,0 90 - 0,0 55 1.010,2
18:38 13,1 4,3 8,8 55,0 2,7 88 - 0,0 60 1.010,3
18:37 13,1 4,3 8,8 55,0 2,4 69 - 0,0 63 1.010,2
18:36 13,1 4,3 8,8 55,0 2,2 90 - 0,0 66 1.010,2
18:35 13,1 4,3 8,8 55,0 2,1 86 - 0,0 69 1.010,2
18:34 13,1 4,5 8,9 55,7 1,9 101 - 0,0 69 1.010,2
18:33 13,1 4,5 8,9 56,0 1,8 56 - 0,0 70 1.010,2
18:32 13,0 4,5 8,9 56,0 1,9 102 - 0,0 70 1.010,2
18:31 13,0 4,3 8,8 55,6 2,0 44 - 0,0 70 1.010,2
18:30 12,9 4,2 8,7 55,0 1,9 99 - 0,0 72 1.010,2
18:29 12,9 4,3 8,7 55,6 1,8 45 - 0,0 74 1.010,2
18:28 12,9 4,2 8,7 55,2 2,2 72 - 0,0 75 1.010,2
18:27 12,9 4,1 8,6 55,0 2,3 72 - 0,0 76 1.010,1
18:26 12,9 4,1 8,6 55,0 2,4 83 - 0,0 76 1.010,1
18:25 12,9 4,2 8,6 55,4 2,5 114 - 0,0 76 1.010,2
18:24 12,9 4,2 8,6 55,6 2,8 66 - 0,0 76 1.010,2
18:23 12,8 4,2 8,6 55,6 3,1 123 - 0,0 76 1.010,2
18:22 12,8 4,3 8,7 56,0 3,0 76 - 0,0 76 1.010,2
18:21 12,8 4,0 8,5 55,1 2,4 93 - 0,0 75 1.010,1
18:20 12,8 4,0 8,5 55,0 2,3 122 - 0,0 73 1.010,0
18:19 12,8 4,0 8,5 55,0 3,2 90 - 0,0 72 1.010,0
18:18 12,8 4,0 8,6 55,0 3,8 92 - 0,0 72 1.010,0
18:17 12,8 4,2 8,6 55,7 4,2 67 - 0,0 72 1.010,0
18:16 12,8 4,3 8,7 56,0 4,5 82 - 0,0 75 1.009,9
18:15 12,8 4,3 8,7 56,0 3,6 101 - 0,0 76 1.009,9
18:14 12,8 4,3 8,7 56,0 2,1 0 - 0,0 76 1.010,0
18:13 12,8 4,3 8,7 56,0 1,8 103 - 0,0 76 1.010,0
18:12 12,8 4,3 8,6 56,0 2,3 33 - 0,0 76 1.010,0
18:11 12,8 4,3 8,6 56,0 3,0 94 - 0,0 76 1.010,0
18:10 12,8 4,3 8,6 56,0 3,2 56 - 0,0 76 1.010,0
18:09 12,8 4,3 8,6 56,0 3,1 73 - 0,0 78 1.010,0
18:08 12,8 4,3 8,7 56,0 3,0 95 - 0,0 81 1.010,0
18:07 12,8 4,3 8,7 56,0 3,7 39 - 0,0 81 1.010,1
18:06 12,9 4,3 8,7 56,0 3,9 57 - 0,0 77 1.010,0
18:05 12,9 4,4 8,7 56,0 4,0 98 - 0,0 76 1.010,0
18:04 12,9 4,4 8,7 56,0 3,9 84 - 0,0 76 1.010,1
18:03 12,9 4,4 8,7 56,0 4,3 75 - 0,0 77 1.010,1
18:02 12,9 4,4 8,7 56,0 4,6 123 - 0,0 78 1.010,1
18:01 12,9 4,4 8,8 56,0 4,7 65 - 0,0 79 1.010,1
18:00 12,9 4,4 8,8 56,0 5,1 45 - 0,0 79 1.010,1
 
17:59 13,0 4,4 8,8 56,0 5,2 51 - 0,0 79 1.010,0
17:58 13,0 4,5 8,8 56,0 5,5 63 - 0,0 80 1.010,0
17:57 13,0 4,5 8,9 56,0 5,6 76 - 0,0 82 1.010,0
17:56 13,1 4,5 8,9 56,0 4,9 63 - 0,0 84 1.010,0
17:55 13,1 4,5 8,9 56,0 4,6 59 - 0,0 84 1.010,0
17:54 13,1 4,6 8,9 56,0 4,4 66 - 0,0 84 1.010,0
17:53 13,1 4,8 9,0 56,8 4,1 29 - 0,0 86 1.010,1
17:52 13,1 4,8 9,0 57,0 3,5 54 - 0,0 89 1.010,1
17:51 13,1 4,6 8,9 56,0 3,0 62 - 0,0 91 1.010,0
17:50 13,1 4,6 8,9 56,0 2,8 52 - 0,0 94 1.010,1
17:49 13,2 4,5 8,9 55,6 3,7 108 - 0,0 97 1.010,1
17:48 13,2 4,5 8,9 55,6 4,6 78 - 0,0 98 1.010,0
17:47 13,2 4,7 9,0 56,0 4,7 82 - 0,0 99 1.010,0
17:46 13,3 4,7 9,0 56,0 4,0 74 - 0,0 102 1.010,1
17:45 13,2 4,7 9,0 56,0 3,6 59 - 0,0 106 1.010,2
17:44 13,3 4,6 9,0 55,7 3,5 84 - 0,0 111 1.010,1
17:43 13,3 4,5 8,9 55,0 3,8 92 - 0,0 119 1.010,2
17:42 13,3 4,5 8,9 55,0 3,9 87 - 0,0 125 1.010,2
17:41 13,3 4,5 9,0 55,0 4,0 59 - 0,0 132 1.010,2
17:40 13,3 4,4 8,9 55,0 4,0 48 - 0,0 132 1.010,1
17:39 13,3 4,2 8,8 54,0 4,1 86 - 0,0 132 1.010,1
17:38 13,3 4,2 8,8 54,0 4,8 72 - 0,0 133 1.010,1
17:37 13,3 4,2 8,8 54,0 4,6 88 - 0,0 137 1.010,1
17:36 13,3 4,2 8,8 54,0 4,2 101 - 0,0 141 1.010,1
17:35 13,3 4,2 8,8 54,0 4,6 45 - 0,0 143 1.010,1
17:34 13,3 4,0 8,7 53,1 5,4 77 - 0,0 147 1.010,1
17:33 13,3 4,0 8,8 53,3 5,8 89 9,4 0,0 149 1.010,1
17:32 13,4 4,3 8,9 54,0 5,4 88 - 0,0 149 1.010,1
17:31 13,4 4,3 8,9 54,0 4,6 66 - 0,0 143 1.010,1
17:30 13,3 4,2 8,9 54,0 4,3 83 - 0,0 142 1.010,1
17:29 13,3 4,3 8,9 54,0 4,5 85 - 0,0 141 1.010,1
17:28 13,4 4,3 8,9 54,0 4,7 77 - 0,0 142 1.010,1
17:27 13,4 4,3 8,9 54,0 4,7 85 - 0,0 142 1.010,1
17:26 13,4 4,3 8,9 54,0 3,9 97 - 0,0 140 1.010,1
17:25 13,4 4,3 8,9 54,0 2,9 31 - 0,0 134 1.010,1
17:24 13,3 4,1 8,8 53,3 2,9 128 - 0,0 129 1.010,1
17:23 13,4 4,0 8,8 53,0 3,8 44 - 0,0 126 1.010,1
17:22 13,4 4,3 8,9 54,0 4,3 104 - 0,0 122 1.010,1
17:21 13,4 4,2 8,9 53,7 4,2 95 - 0,0 116 1.010,1
17:20 13,4 4,0 8,8 53,0 4,0 56 - 0,0 107 1.010,1
17:19 13,4 4,0 8,8 53,0 4,5 52 - 0,0 100 1.010,1
17:18 13,4 4,1 8,8 53,0 4,8 45 - 0,0 97 1.010,0
17:17 13,4 4,3 9,0 53,9 4,4 78 - 0,0 94 1.010,1
17:16 13,5 4,3 9,0 53,9 3,5 91 - 0,0 92 1.010,1
17:15 13,4 4,2 8,9 53,3 2,9 49 - 0,0 90 1.010,1
17:14 13,5 4,2 8,9 53,6 3,0 95 - 0,0 88 1.010,1
17:13 13,5 4,1 8,9 53,0 3,8 125 - 0,0 86 1.010,1
17:12 13,5 4,1 8,9 53,0 4,3 65 - 0,0 86 1.010,0
17:11 13,5 4,2 8,9 53,0 4,7 47 - 0,0 84 1.010,1
17:10 13,6 4,2 8,9 53,0 4,0 78 - 0,0 82 1.010,1
17:09 13,6 4,2 9,0 53,0 3,8 59 - 0,0 80 1.010,0
17:08 13,6 4,2 9,0 53,0 4,0 68 - 0,0 77 1.010,0
17:07 13,6 4,3 9,0 53,0 4,2 55 - 0,0 77 1.010,1
17:06 13,7 4,3 9,0 53,0 4,4 30 - 0,0 76 1.010,0
17:05 13,7 4,3 9,0 53,0 4,3 42 - 0,0 76 1.010,0
17:04 13,7 4,3 9,1 53,0 4,5 57 - 0,0 76 1.010,0
17:03 13,7 4,3 9,1 53,0 4,9 44 - 0,0 76 1.010,0
17:02 13,8 4,4 9,1 53,0 5,0 29 - 0,0 76 1.010,0
17:01 13,8 4,2 9,1 52,4 4,7 25 - 0,0 77 1.010,0
17:00 13,8 4,1 9,0 52,0 4,5 61 - 0,0 78 1.010,0
 
16:59 13,8 4,2 9,1 52,0 4,7 26 - 0,0 80 1.010,0
16:58 13,9 4,2 9,1 52,0 5,1 34 - 0,0 85 1.010,0
16:57 13,9 4,2 9,1 52,0 5,3 20 - 0,0 90 1.010,0
16:56 13,9 4,4 9,2 52,7 4,9 24 - 0,0 96 1.010,0
16:55 13,9 4,1 9,0 51,7 4,1 34 - 0,0 105 1.010,0
16:54 13,9 3,9 9,0 51,0 3,7 24 - 0,0 114 1.010,0
16:53 13,9 3,9 9,0 51,0 3,6 55 - 0,0 125 1.010,0
16:52 13,9 3,8 8,9 50,8 3,2 22 - 0,0 138 1.009,9
16:51 13,9 3,6 8,9 50,0 3,3 43 - 0,0 151 1.009,9
16:50 13,9 3,8 8,9 50,5 4,3 34 - 0,0 165 1.009,9
16:49 13,9 3,9 9,0 51,0 5,1 26 - 0,0 177 1.009,9
16:48 13,9 4,2 9,1 51,9 4,9 51 - 0,0 187 1.010,0
16:47 13,9 4,5 9,2 53,0 4,6 42 - 0,0 194 1.010,0
16:46 13,8 4,4 9,1 52,8 3,9 52 - 0,0 199 1.010,0
16:45 13,8 4,0 9,0 51,6 3,4 34 - 0,0 202 1.010,0
16:44 13,8 3,9 8,9 51,0 3,4 30 - 0,0 200 1.010,0
16:43 13,8 3,9 8,9 51,0 3,6 47 - 0,0 199 1.010,0
16:42 13,8 3,9 8,9 51,0 3,8 55 - 0,0 196 1.009,9
16:41 13,8 3,6 8,8 50,1 4,1 45 - 0,0 192 1.009,9
16:40 13,8 3,6 8,8 50,0 4,4 72 - 0,0 187 1.010,0
16:39 13,8 3,6 8,8 50,0 4,3 47 - 0,0 181 1.010,0
16:38 13,9 3,6 8,8 50,0 3,8 60 - 0,0 174 1.010,0
16:37 13,8 3,6 8,8 50,0 3,5 22 - 0,0 170 1.010,0
16:36 13,8 3,3 8,7 49,2 3,5 36 - 0,0 166 1.010,0
16:35 13,9 3,3 8,7 49,0 3,2 32 - 0,0 165 1.010,0
16:34 13,9 3,2 8,7 48,7 3,2 68 - 0,0 166 1.010,0
16:33 13,9 3,0 8,6 48,0 3,9 50 - 0,0 169 1.010,0
16:32 13,9 3,2 8,7 48,6 3,9 45 - 0,0 171 1.010,0
16:31 14,0 3,4 8,8 49,0 3,8 123 - 0,0 171 1.010,0
16:30 14,0 3,4 8,8 49,0 4,0 65 - 0,0 171 1.009,9
16:29 14,0 3,4 8,8 48,9 4,4 43 - 0,0 173 1.009,9
16:28 14,0 3,1 8,7 48,0 4,2 95 - 0,0 177 1.010,0
16:27 14,0 3,3 8,8 48,5 4,5 45 - 0,0 180 1.010,0
16:26 14,0 3,5 8,8 49,0 5,2 55 - 0,0 183 1.009,9
16:25 14,0 3,2 8,7 48,3 4,9 59 - 0,0 189 1.009,9
16:24 14,0 2,9 8,6 47,2 4,8 25 - 0,0 194 1.009,9
16:23 14,0 3,1 8,7 48,0 4,9 51 - 0,0 199 1.009,9
16:22 14,0 3,0 8,6 47,7 4,4 43 - 0,0 203 1.009,9
16:21 14,0 2,8 8,5 47,0 3,6 70 - 0,0 206 1.009,9
16:20 13,9 2,6 8,5 46,4 3,5 79 - 0,0 207 1.009,9
16:19 13,9 2,7 8,5 46,8 3,9 62 - 0,0 210 1.009,9
16:18 13,9 2,8 8,5 47,0 4,1 75 - 0,0 215 1.009,9
16:17 13,9 2,7 8,5 46,8 4,0 79 - 0,0 221 1.009,9
16:16 13,9 2,4 8,4 46,0 4,0 88 - 0,0 227 1.009,9
16:15 13,9 2,6 8,4 46,5 4,5 53 - 0,0 239 1.009,9
16:14 13,9 2,5 8,4 46,4 5,0 52 - 0,0 242 1.009,9
16:13 14,0 2,7 8,5 46,8 5,2 68 - 0,0 247 1.009,9
16:12 14,0 2,8 8,6 47,0 5,4 69 - 0,0 248 1.009,9
16:11 14,0 3,0 8,6 47,4 5,3 77 - 0,0 247 1.009,8
16:10 14,0 3,4 8,8 49,0 4,6 93 - 0,0 246 1.009,9
16:09 14,0 3,4 8,8 49,0 3,8 57 - 0,0 246 1.009,9
16:08 14,0 3,2 8,7 48,4 3,5 68 - 0,0 246 1.009,9
16:07 14,0 3,1 8,7 48,0 3,8 80 - 0,0 246 1.009,9
16:06 14,0 3,4 8,8 49,1 4,1 82 - 0,0 246 1.009,9
16:05 13,9 3,6 8,9 49,8 3,4 107 - 0,0 245 1.009,9
16:04 13,9 3,3 8,7 49,0 2,5 89 - 0,0 243 1.009,8
16:03 13,8 3,1 8,6 48,5 2,6 64 - 0,0 241 1.009,8
16:02 13,8 3,2 8,6 48,7 2,9 52 - 0,0 240 1.009,9
16:01 13,8 3,0 8,6 48,1 3,4 49 - 0,0 236 1.009,9
16:00 13,8 3,0 8,6 48,0 4,3 82 - 0,0 234 1.009,8
 
15:59 13,8 3,0 8,6 48,0 4,4 64 - 0,0 230 1.009,9
15:58 13,8 2,8 8,5 47,6 4,1 57 - 0,0 226 1.009,8
15:57 13,8 2,7 8,4 47,0 4,6 70 - 0,0 221 1.009,8
15:56 13,9 2,7 8,5 47,0 5,0 60 - 0,0 218 1.009,9
15:55 13,9 3,0 8,6 47,9 5,1 73 - 0,0 216 1.009,9
15:54 13,9 3,1 8,7 48,2 4,7 74 - 0,0 215 1.009,9
15:53 13,9 3,3 8,7 48,7 2,9 55 - 0,0 214 1.009,9
15:52 13,9 3,1 8,6 48,0 2,3 164 - 0,0 213 1.009,8
15:51 13,9 3,2 8,7 48,6 2,5 159 - 0,0 211 1.009,8
15:50 13,9 3,3 8,7 49,0 3,3 49 - 0,0 209 1.009,8
15:49 13,8 3,3 8,7 49,0 4,2 93 - 0,0 208 1.009,8
15:48 13,8 3,0 8,6 48,1 4,6 86 - 0,0 208 1.009,8
15:47 13,8 2,9 8,5 47,7 3,9 78 - 0,0 209 1.009,8
15:46 13,8 2,6 8,4 47,0 3,7 39 - 0,0 212 1.009,7
15:45 13,8 2,6 8,4 47,0 3,5 86 - 0,0 214 1.009,7
15:44 13,8 2,4 8,3 46,3 4,2 42 - 0,0 219 1.009,7
15:43 13,9 2,4 8,3 46,0 5,0 52 - 0,0 220 1.009,7
15:42 13,9 2,3 8,3 45,7 5,6 87 - 0,0 222 1.009,7
15:41 13,9 2,2 8,3 45,4 5,6 48 - 0,0 226 1.009,7
15:40 14,0 2,5 8,4 46,0 4,8 52 - 0,0 229 1.009,7
15:39 14,0 2,7 8,5 46,6 4,2 97 - 0,0 229 1.009,7
15:38 14,0 2,9 8,6 47,0 4,4 87 - 0,0 226 1.009,7
15:37 14,0 2,9 8,6 47,0 4,4 104 - 0,0 219 1.009,7
15:36 14,0 2,5 8,5 46,0 4,4 99 - 0,0 214 1.009,7
15:35 14,0 2,5 8,5 46,0 4,5 98 - 0,0 210 1.009,7
15:34 14,0 2,5 8,5 46,0 4,9 75 - 0,0 207 1.009,8
15:33 14,0 2,8 8,6 46,7 5,1 83 - 0,0 206 1.009,7
15:32 14,0 2,8 8,6 47,0 4,9 77 - 0,0 206 1.009,6
15:31 14,0 2,5 8,4 46,1 4,8 59 - 0,0 206 1.009,7
15:30 14,0 2,6 8,5 46,3 5,5 100 - 0,0 206 1.009,7
15:29 14,0 2,8 8,5 47,0 5,7 85 - 0,0 207 1.009,7
15:28 13,9 2,6 8,5 46,5 4,5 94 - 0,0 207 1.009,7
15:27 13,9 2,4 8,4 46,0 4,1 64 - 0,0 207 1.009,7
15:26 13,9 2,5 8,4 46,0 5,3 79 - 0,0 207 1.009,8
15:25 13,9 2,5 8,4 46,0 5,7 70 9,4 0,0 208 1.009,8
15:24 13,9 2,5 8,4 46,0 4,7 70 - 0,0 210 1.009,7
15:23 13,9 2,4 8,4 46,0 3,9 90 - 0,0 211 1.009,7
15:22 13,8 2,2 8,3 45,5 3,4 94 - 0,0 213 1.009,7
15:21 13,9 2,1 8,2 45,0 3,4 168 - 0,0 214 1.009,8
15:20 13,9 1,8 8,1 44,2 4,2 87 - 0,0 217 1.009,8
15:19 13,9 2,1 8,3 45,0 5,7 79 10,3 0,0 220 1.009,8
15:18 14,0 2,1 8,3 44,8 5,4 100 - 0,0 223 1.009,8
15:17 14,0 2,1 8,3 44,8 4,0 111 - 0,0 229 1.009,8
15:16 14,0 2,5 8,4 46,0 4,0 28 - 0,0 236 1.009,8
15:15 14,0 2,5 8,4 46,0 4,2 60 - 0,0 251 1.009,7
15:14 14,0 2,5 8,4 46,0 4,9 113 - 0,0 253 1.009,7
15:13 14,0 2,5 8,4 46,0 5,4 70 - 0,0 260 1.009,7
15:12 13,9 2,5 8,4 46,0 3,5 111 - 0,0 264 1.009,7
15:11 13,9 2,3 8,3 45,6 3,1 213 - 0,0 267 1.009,7
15:10 13,9 2,3 8,3 45,6 2,9 89 - 0,0 267 1.009,7
15:09 13,8 1,9 8,1 44,5 5,6 76 9,4 0,0 267 1.009,7
15:08 13,8 1,7 8,1 44,0 5,9 91 - 0,0 265 1.009,6
15:07 13,8 1,7 8,1 44,0 5,9 80 10,3 0,0 265 1.009,6
15:06 13,8 1,7 8,1 44,0 6,3 97 10,3 0,0 266 1.009,6
15:05 13,8 1,7 8,1 44,0 6,5 90 9,8 0,0 270 1.009,6
15:04 13,8 1,7 8,1 44,0 6,0 64 - 0,0 272 1.009,6
15:03 13,8 2,0 8,2 44,8 5,2 94 - 0,0 274 1.009,6
15:02 13,8 1,8 8,1 44,1 5,1 68 - 0,0 273 1.009,7
15:01 13,9 1,8 8,1 44,0 6,3 58 - 0,0 269 1.009,6
15:00 13,9 1,9 8,2 44,4 6,9 59 - 0,0 264 1.009,6
 
14:59 13,9 2,1 8,3 45,0 6,7 93 11,2 0,0 259 1.009,7
14:58 13,9 2,1 8,3 45,0 6,5 91 - 0,0 253 1.009,7
14:57 13,9 2,1 8,3 45,0 7,0 74 12,1 0,0 250 1.009,7
14:56 13,9 2,4 8,4 46,0 6,9 80 12,1 0,0 246 1.009,6
14:55 13,9 2,7 8,5 46,8 4,9 63 - 0,0 241 1.009,6
14:54 13,9 2,3 8,3 45,7 3,6 132 - 0,0 237 1.009,6
14:53 13,9 2,1 8,2 45,0 4,2 44 - 0,0 234 1.009,6
14:52 13,9 2,1 8,2 45,0 5,5 74 - 0,0 234 1.009,6
14:51 13,9 2,6 8,4 46,6 5,2 74 - 0,0 235 1.009,6
14:50 13,8 2,7 8,4 47,0 4,1 84 - 0,0 236 1.009,6
14:49 13,8 2,6 8,4 46,8 3,7 76 - 0,0 238 1.009,6
14:48 13,8 2,2 8,2 45,7 4,7 78 - 0,0 240 1.009,6
14:47 13,8 2,0 8,1 45,0 5,7 76 10,7 0,0 244 1.009,6
14:46 13,8 2,0 8,2 45,0 5,8 82 9,4 0,0 250 1.009,6
14:45 13,8 2,0 8,2 45,0 5,8 60 - 0,0 254 1.009,6
14:44 13,9 2,0 8,2 44,9 6,2 88 9,8 0,0 258 1.009,6
14:43 13,9 1,9 8,1 44,3 6,0 78 9,8 0,0 262 1.009,6
14:42 13,9 2,1 8,2 45,0 5,2 45 - 0,0 266 1.009,6
14:41 13,9 2,1 8,2 45,0 4,7 32 - 0,0 271 1.009,6
14:40 13,9 1,9 8,2 44,3 4,6 83 - 0,0 274 1.009,6
14:39 13,9 1,8 8,1 44,0 5,3 49 - 0,0 279 1.009,6
14:38 13,9 2,1 8,2 45,0 5,5 70 - 0,0 282 1.009,6
14:37 13,9 2,1 8,2 45,0 5,4 76 - 0,0 283 1.009,6
14:36 13,8 2,2 8,2 45,4 5,9 118 9,4 0,0 283 1.009,6
14:35 13,8 2,4 8,3 46,0 5,9 88 10,7 0,0 283 1.009,6
14:34 13,8 2,3 8,3 46,0 5,3 75 - 0,0 283 1.009,6
14:33 13,8 2,3 8,3 46,0 5,2 104 - 0,0 282 1.009,6
14:32 13,8 2,3 8,3 46,0 5,2 88 - 0,0 281 1.009,6
14:31 13,7 2,3 8,2 46,0 5,0 59 - 0,0 280 1.009,6
14:30 13,7 2,1 8,2 45,6 5,0 73 - 0,0 278 1.009,6
14:29 13,7 1,9 8,1 45,0 5,5 70 - 0,0 279 1.009,6
14:28 13,7 2,0 8,1 45,2 6,3 78 - 0,0 280 1.009,5
14:27 13,8 2,2 8,2 45,9 6,5 68 - 0,0 282 1.009,5
14:26 13,8 2,3 8,3 46,2 6,0 57 - 0,0 283 1.009,5
14:25 13,7 2,6 8,4 47,0 4,9 46 - 0,0 283 1.009,5
14:24 13,7 2,5 8,3 47,0 4,4 47 - 0,0 283 1.009,5
14:23 13,7 2,5 8,3 47,0 4,7 81 - 0,0 285 1.009,5
14:22 13,7 2,5 8,3 47,0 5,1 84 - 0,0 286 1.009,5
14:21 13,7 2,3 8,2 46,3 5,1 85 - 0,0 286 1.009,5
14:20 13,7 2,5 8,3 47,0 5,2 87 - 0,0 285 1.009,5
14:19 13,7 2,5 8,3 47,0 5,6 59 - 0,0 284 1.009,5
14:18 13,7 2,5 8,3 47,0 5,2 72 - 0,0 281 1.009,5
14:17 13,7 2,5 8,3 47,0 5,1 81 - 0,0 281 1.009,5
14:16 13,7 2,5 8,3 47,0 5,4 81 - 0,0 279 1.009,5
14:15 13,7 2,5 8,3 47,0 6,0 70 - 0,0 277 1.009,5
14:14 13,7 2,6 8,3 47,0 5,7 57 9,4 0,0 276 1.009,6
14:13 13,7 2,5 8,3 46,7 4,9 53 - 0,0 276 1.009,5
14:12 13,7 2,3 8,2 46,0 5,0 105 - 0,0 278 1.009,5
14:11 13,8 2,3 8,3 46,0 5,6 78 - 0,0 278 1.009,5
14:10 13,8 2,3 8,3 46,0 5,9 72 - 0,0 278 1.009,5
14:09 13,8 2,4 8,3 46,0 5,8 72 - 0,0 276 1.009,5
14:08 13,9 2,4 8,3 46,0 5,4 78 - 0,0 273 1.009,5
14:07 13,9 2,8 8,5 47,1 5,0 40 - 0,0 270 1.009,5
14:06 13,9 3,1 8,6 48,0 4,5 55 - 0,0 267 1.009,5
14:05 13,9 3,1 8,7 48,0 4,1 84 - 0,0 267 1.009,5
14:04 13,9 3,1 8,6 48,0 3,6 51 - 0,0 267 1.009,5
14:03 13,9 2,8 8,5 47,1 3,4 51 - 0,0 266 1.009,6
14:02 14,0 2,8 8,5 47,0 3,7 51 - 0,0 265 1.009,5
14:01 14,0 2,9 8,6 47,0 3,9 73 - 0,0 265 1.009,5
14:00 14,1 2,9 8,6 47,0 4,2 99 - 0,0 265 1.009,6
 
13:59 14,1 2,9 8,7 47,0 4,2 129 - 0,0 264 1.009,5
13:58 14,2 3,0 8,7 47,0 3,5 76 - 0,0 264 1.009,5
13:57 14,2 3,0 8,7 46,9 3,2 79 - 0,0 266 1.009,5
13:56 14,2 2,8 8,7 46,3 3,4 61 - 0,0 268 1.009,5
13:55 14,3 3,1 8,8 47,0 3,8 64 - 0,0 273 1.009,5
13:54 14,3 3,1 8,8 47,0 3,6 66 - 0,0 278 1.009,5
13:53 14,3 3,3 8,9 47,7 3,7 59 - 0,0 286 1.009,5
13:52 14,2 3,3 8,9 48,0 2,4 50 - 0,0 293 1.009,5
13:51 14,2 2,9 8,7 46,8 0,5 195 - 0,0 304 1.009,5
13:50 14,2 2,3 8,4 45,0 0,3 244 - 0,0 313 1.009,5
13:49 14,2 2,4 8,5 45,0 2,7 44 - 0,0 323 1.009,5
13:48 14,2 2,6 8,6 45,6 4,8 56 - 0,0 334 1.009,5
13:47 14,3 2,8 8,7 46,0 4,7 71 - 0,0 342 1.009,5
13:46 14,3 2,8 8,7 46,1 4,5 75 - 0,0 350 1.009,5
13:45 14,3 3,4 8,9 47,9 4,4 46 - 0,0 357 1.009,5
13:44 14,3 3,1 8,8 47,0 3,6 95 - 0,0 445 1.009,5
13:43 14,3 3,3 8,9 47,5 3,6 139 - 0,0 490 1.009,4
13:42 14,3 3,2 8,9 47,4 4,4 67 - 0,0 408 1.009,4
13:41 14,3 3,1 8,8 47,0 5,6 130 - 0,0 406 1.009,4
13:40 14,4 3,7 9,1 48,8 5,2 67 10,7 0,0 424 1.009,4
13:39 14,3 3,8 9,1 49,0 3,7 90 - 0,0 458 1.009,5
13:38 14,3 3,7 9,1 49,0 3,3 134 - 0,0 542 1.009,5
13:37 14,3 3,7 9,0 49,0 4,0 130 - 0,0 497 1.009,4
13:36 14,2 3,7 9,0 49,0 4,6 96 - 0,0 489 1.009,4
13:35 14,2 3,8 9,1 49,8 3,9 94 - 0,0 551 1.009,4
13:34 14,1 3,8 9,0 50,0 2,4 100 - 0,0 581 1.009,4
13:33 14,1 3,7 9,0 49,8 1,4 58 - 0,0 580 1.009,4
13:32 14,0 3,5 8,8 49,0 1,5 317 - 0,0 580 1.009,4
13:31 14,0 3,4 8,8 49,0 3,3 106 11,2 0,0 558 1.009,3
13:30 14,0 3,8 9,0 50,3 5,7 95 - 0,0 530 1.009,4
13:29 13,9 3,9 9,0 51,0 5,4 48 10,3 0,0 549 1.009,4
13:28 13,8 3,9 8,9 51,0 4,6 109 10,3 0,0 511 1.009,4
13:27 13,8 3,7 8,9 50,6 3,7 88 - 0,0 470 1.009,4
13:26 13,8 3,5 8,8 50,0 3,1 69 - 0,0 475 1.009,4
13:25 13,8 3,5 8,8 50,0 3,7 42 - 0,0 516 1.009,4
13:24 13,8 3,5 8,8 50,0 4,3 72 - 0,0 493 1.009,4
13:23 13,8 3,6 8,8 50,0 4,1 32 - 0,0 453 1.009,5
13:22 13,8 3,6 8,8 50,1 3,5 82 - 0,0 389 1.009,4
13:21 13,9 3,9 9,0 51,0 3,8 98 - 0,0 382 1.009,4
13:20 13,9 3,8 8,9 50,6 4,4 95 - 0,0 386 1.009,4
13:19 13,9 3,8 8,9 50,6 5,3 91 - 0,0 398 1.009,4
13:18 13,9 3,9 9,0 51,0 4,0 78 - 0,0 406 1.009,4
13:17 13,8 3,9 8,9 51,0 1,1 186 - 0,0 400 1.009,4
13:16 13,8 3,6 8,8 50,1 0,9 287 - 0,0 389 1.009,4
13:15 13,8 3,5 8,8 50,0 2,2 102 - 0,0 378 1.009,4
13:14 13,8 3,5 8,8 50,0 4,4 32 - 0,0 373 1.009,4
13:13 13,8 3,7 8,8 50,6 3,7 86 - 0,0 373 1.009,4
13:12 13,7 3,7 8,8 51,0 3,3 136 - 0,0 374 1.009,4
13:11 13,6 3,4 8,6 50,2 2,3 130 - 0,0 364 1.009,4
13:10 13,6 3,1 8,5 49,1 2,3 209 - 0,0 360 1.009,3
13:09 13,6 3,1 8,5 49,0 2,5 119 - 0,0 358 1.009,3
13:08 13,6 2,9 8,4 48,6 3,4 55 - 0,0 357 1.009,3
13:07 13,6 2,8 8,4 48,0 3,0 77 - 0,0 362 1.009,4
13:06 13,6 2,8 8,4 48,0 3,8 82 - 0,0 361 1.009,3
13:05 13,6 2,8 8,4 48,0 5,0 84 - 0,0 364 1.009,3
13:04 13,7 2,8 8,4 48,0 5,3 88 - 0,0 366 1.009,3
13:03 13,7 2,9 8,5 48,0 4,7 68 - 0,0 367 1.009,3
13:02 13,7 2,9 8,4 48,0 4,5 91 - 0,0 366 1.009,3
13:01 13,7 2,7 8,4 47,4 4,3 72 - 0,0 367 1.009,3
13:00 13,7 3,0 8,5 48,5 4,3 53 - 0,0 365 1.009,3
 
12:59 13,7 3,2 8,6 49,0 4,0 95 - 0,0 369 1.009,3
12:58 13,7 2,9 8,4 48,2 3,9 38 - 0,0 370 1.009,3
12:57 13,7 3,1 8,5 49,0 4,1 92 - 0,0 366 1.009,3
12:56 13,6 3,1 8,5 49,0 3,6 59 - 0,0 358 1.009,3
12:55 13,6 2,9 8,4 48,4 2,8 122 - 0,0 355 1.009,3
12:54 13,6 2,8 8,4 48,0 3,3 113 - 0,0 354 1.009,3
12:53 13,6 2,8 8,4 48,0 4,1 67 - 0,0 350 1.009,4
12:52 13,6 2,8 8,4 48,0 4,9 41 - 0,0 346 1.009,4
12:51 13,6 2,8 8,4 48,0 5,1 62 - 0,0 345 1.009,3
12:50 13,7 2,8 8,4 48,0 5,3 75 - 0,0 342 1.009,3
12:49 13,7 2,6 8,4 47,4 5,3 69 - 0,0 342 1.009,3
12:48 13,7 2,6 8,3 47,0 5,3 118 - 0,0 339 1.009,3
12:47 13,7 2,6 8,4 47,1 5,5 57 - 0,0 338 1.009,3
12:46 13,7 2,8 8,5 47,8 4,9 65 - 0,0 346 1.009,3
12:45 13,7 2,6 8,3 47,0 4,3 84 - 0,0 360 1.009,3
12:44 13,7 2,6 8,3 47,0 4,7 85 - 0,0 361 1.009,3
12:43 13,7 3,0 8,5 48,3 5,6 59 10,3 0,0 370 1.009,3
12:42 13,7 3,4 8,7 49,8 5,5 78 - 0,0 399 1.009,3
12:41 13,7 3,7 8,8 51,1 4,3 77 - 0,0 411 1.009,4
12:40 13,6 3,9 8,8 51,8 3,4 90 - 0,0 442 1.009,3
12:39 13,6 3,7 8,8 51,4 3,7 66 - 0,0 420 1.009,4
12:38 13,5 3,5 8,7 50,9 4,1 99 - 0,0 387 1.009,4
12:37 13,5 3,3 8,5 50,0 4,4 94 - 0,0 348 1.009,3
12:36 13,5 3,5 8,6 50,9 5,3 86 - 0,0 348 1.009,3
12:35 13,5 4,2 8,9 53,2 5,4 80 9,8 0,0 343 1.009,4
12:34 13,5 4,7 9,1 55,0 4,0 102 - 0,0 332 1.009,4
12:33 13,5 4,6 9,1 55,0 2,5 95 - 0,0 326 1.009,4
12:32 13,4 4,6 9,1 55,0 2,2 53 - 0,0 322 1.009,4
12:31 13,4 4,6 9,1 55,0 2,5 59 - 0,0 321 1.009,4
12:30 13,4 4,8 9,1 55,9 3,2 74 - 0,0 324 1.009,4
12:29 13,4 4,9 9,2 56,3 3,6 71 - 0,0 327 1.009,3
12:28 13,3 5,3 9,3 58,0 3,4 91 - 0,0 331 1.009,3
12:27 13,3 5,3 9,3 58,0 2,9 58 - 0,0 338 1.009,4
12:26 13,2 5,4 9,3 58,6 2,9 30 - 0,0 348 1.009,4
12:25 13,2 5,2 9,3 58,3 2,9 52 - 0,0 348 1.009,4
12:24 13,2 5,1 9,2 58,0 2,8 57 - 0,0 349 1.009,4
12:23 13,1 4,9 9,1 57,0 3,3 64 - 0,0 349 1.009,3
12:22 13,1 4,9 9,1 57,0 4,1 43 - 0,0 346 1.009,3
12:21 13,2 4,9 9,1 57,0 4,9 83 - 0,0 342 1.009,3
12:20 13,1 4,8 9,1 57,0 4,6 83 - 0,0 339 1.009,4
12:19 13,1 4,6 9,0 56,3 3,6 80 - 0,0 340 1.009,3
12:18 13,2 4,6 9,0 56,1 3,8 132 - 0,0 344 1.009,3
12:17 13,2 4,9 9,1 57,2 4,6 99 - 0,0 348 1.009,3
12:16 13,2 5,2 9,2 58,0 5,0 61 - 0,0 352 1.009,3
12:15 13,2 5,1 9,2 58,0 4,4 97 - 0,0 355 1.009,3
12:14 13,2 5,1 9,2 58,0 3,8 47 - 0,0 355 1.009,3
12:13 13,2 5,1 9,2 58,0 4,1 36 - 0,0 354 1.009,3
12:12 13,1 5,1 9,2 57,9 4,0 26 - 0,0 358 1.009,2
12:11 13,1 4,8 9,0 57,0 3,7 59 - 0,0 383 1.009,3
12:10 13,1 4,7 8,9 56,6 3,9 36 - 0,0 398 1.009,2
12:09 13,1 4,5 8,9 56,0 4,4 39 - 0,0 419 1.009,3
12:08 13,1 4,5 8,9 56,0 4,7 51 - 0,0 482 1.009,3
12:07 13,1 4,7 9,0 56,8 4,8 57 - 0,0 480 1.009,3
12:06 13,1 5,1 9,2 58,1 4,9 46 - 0,0 466 1.009,2
12:05 13,1 5,3 9,2 58,8 4,4 78 - 0,0 426 1.009,2
12:04 13,1 5,0 9,1 58,0 3,9 49 - 0,0 380 1.009,2
12:03 13,1 5,0 9,1 58,0 4,0 49 - 0,0 359 1.009,2
12:02 13,1 5,0 9,1 58,0 3,9 48 - 0,0 329 1.009,3
12:01 13,0 5,0 9,1 58,0 3,7 90 - 0,0 306 1.009,2
12:00 13,0 5,0 9,1 58,0 3,1 59 - 0,0 291 1.009,2
 
11:59 13,0 4,9 9,0 57,8 3,0 71 - 0,0 280 1.009,3
11:58 13,0 4,7 8,9 57,0 3,4 53 - 0,0 272 1.009,3
11:57 13,0 4,7 8,9 57,0 4,2 52 - 0,0 267 1.009,2
11:56 13,0 4,7 8,9 57,0 4,9 117 - 0,0 265 1.009,2
11:55 13,0 4,9 9,0 57,9 5,0 74 - 0,0 270 1.009,2
11:54 12,9 4,9 9,0 58,0 4,7 58 - 0,0 281 1.009,2
11:53 12,9 5,0 9,0 58,3 4,2 44 - 0,0 292 1.009,1
11:52 12,9 5,0 9,0 58,6 4,2 68 - 0,0 305 1.009,1
11:51 12,9 4,9 9,0 58,0 4,4 45 - 0,0 329 1.009,2
11:50 12,9 4,9 8,9 58,0 4,9 82 - 0,0 349 1.009,1
11:49 12,9 4,8 8,9 58,0 5,8 78 9,4 0,0 370 1.009,1
11:48 12,8 4,8 8,9 58,0 6,2 59 - 0,0 383 1.009,1
11:47 12,8 4,8 8,9 58,0 5,6 53 - 0,0 378 1.009,1
11:46 12,8 4,9 9,0 58,5 4,8 37 - 0,0 373 1.009,1
11:45 12,8 4,9 8,9 58,4 4,3 57 - 0,0 362 1.009,1
11:44 12,8 4,9 8,9 58,7 4,1 44 - 0,0 338 1.009,1
11:43 12,8 5,0 9,0 59,0 4,4 20 - 0,0 333 1.009,1
11:42 12,8 5,5 9,2 60,9 4,6 61 - 0,0 331 1.009,1
11:41 12,7 5,5 9,2 61,0 4,5 32 - 0,0 332 1.009,2
11:40 12,7 5,4 9,1 61,0 3,9 65 - 0,0 330 1.009,2
11:39 12,7 5,4 9,1 61,0 3,4 75 - 0,0 325 1.009,1
11:38 12,6 5,1 9,0 60,1 3,4 45 - 0,0 319 1.009,1
11:37 12,6 5,1 9,0 60,1 3,9 57 - 0,0 314 1.009,1
11:36 12,6 5,3 9,0 61,0 4,5 80 - 0,0 309 1.009,1
11:35 12,6 5,3 9,0 61,0 4,9 47 - 0,0 303 1.009,1
11:34 12,6 5,4 9,1 61,5 5,4 66 9,4 0,0 298 1.009,1
11:33 12,6 5,7 9,2 62,6 5,6 88 9,4 0,0 295 1.009,1
11:32 12,5 5,7 9,2 63,0 4,9 82 - 0,0 295 1.009,1
11:31 12,5 5,5 9,1 62,1 4,8 46 - 0,0 296 1.009,1
11:30 12,5 5,4 9,0 61,8 5,2 65 - 0,0 299 1.009,1
11:29 12,5 5,3 9,0 61,4 5,6 72 - 0,0 295 1.009,1
11:28 12,5 5,7 9,2 63,0 5,8 70 - 0,0 281 1.009,1
11:27 12,5 5,9 9,3 64,0 5,7 53 9,4 0,0 269 1.009,0
11:26 12,5 6,3 9,5 65,6 5,2 83 - 0,0 264 1.009,1
11:25 12,5 6,8 9,8 67,9 4,9 47 - 0,0 266 1.009,1
11:24 12,5 6,9 9,8 68,2 4,4 77 - 0,0 274 1.009,1
11:23 12,5 7,0 9,9 69,0 3,6 66 - 0,0 284 1.009,1
11:22 12,5 7,1 9,9 69,5 4,0 25 - 0,0 299 1.009,1
11:21 12,4 7,2 9,9 70,0 4,8 62 - 0,0 315 1.009,0
11:20 12,4 7,4 10,0 70,8 4,9 34 - 0,0 316 1.009,0
11:19 12,4 7,4 10,0 71,0 4,2 18 - 0,0 319 1.009,0
11:18 12,4 7,3 10,0 71,0 3,5 3 - 0,0 325 1.009,0
11:17 12,4 7,4 10,0 71,4 3,4 36 - 0,0 341 1.009,0
11:16 12,3 7,5 10,0 72,0 3,9 44 - 0,0 351 1.009,0
11:15 12,3 7,5 10,0 72,0 3,8 37 - 0,0 346 1.009,0
11:14 12,3 7,4 10,0 72,0 3,7 19 - 0,0 345 1.009,0
11:13 12,3 7,4 10,0 72,0 3,8 61 - 0,0 330 1.009,0
11:12 12,2 7,4 9,9 72,0 4,2 56 - 0,0 305 1.009,1
11:11 12,2 7,5 10,0 72,4 4,4 38 - 0,0 292 1.009,1
11:10 12,3 7,6 10,1 73,0 4,5 77 - 0,0 286 1.009,1
11:09 12,2 7,7 10,1 73,7 4,0 56 - 0,0 289 1.009,1
11:08 12,2 7,8 10,1 74,0 3,7 21 - 0,0 296 1.009,0
11:07 12,2 7,6 10,1 73,2 3,8 52 - 0,0 297 1.009,0
11:06 12,2 7,8 10,1 74,0 4,3 25 - 0,0 295 1.009,0
11:05 12,2 7,8 10,2 74,0 4,4 22 - 0,0 321 1.009,0
11:04 12,2 7,8 10,1 74,0 4,1 26 - 0,0 307 1.009,0
11:03 12,2 7,7 10,1 74,0 3,9 6 - 0,0 306 1.009,0
11:02 12,2 7,7 10,1 74,0 3,9 31 - 0,0 278 1.009,0
11:01 12,1 7,7 10,0 74,0 3,8 37 - 0,0 227 1.009,0
11:00 12,1 7,6 10,0 73,7 3,8 59 - 0,0 227 1.009,1
 
10:59 12,1 7,6 10,0 73,4 4,3 18 - 0,0 238 1.009,1
10:58 12,1 7,7 10,0 74,0 4,1 45 - 0,0 244 1.009,1
10:57 12,1 7,6 10,0 74,0 3,8 88 - 0,0 223 1.009,0
10:56 12,1 7,6 10,0 74,0 3,9 32 - 0,0 204 1.009,0
10:55 12,1 7,7 10,1 74,2 4,8 30 - 0,0 204 1.009,0
10:54 12,1 7,9 10,1 75,0 4,8 10 - 0,0 213 1.009,0
10:53 12,1 7,9 10,1 75,0 4,3 18 - 0,0 223 1.009,0
10:52 12,1 7,9 10,1 75,0 3,9 60 - 0,0 228 1.009,0
10:51 12,1 7,8 10,1 75,0 3,1 23 - 0,0 236 1.009,0
10:50 12,0 7,8 10,1 75,0 2,7 9 - 0,0 237 1.009,0
10:49 12,0 7,8 10,0 75,0 3,1 12 - 0,0 237 1.009,0
10:48 12,0 7,8 10,0 75,0 4,1 43 - 0,0 222 1.009,0
10:47 12,0 7,7 10,0 75,0 4,0 44 - 0,0 200 1.009,0
10:46 12,0 7,7 10,0 75,0 3,6 331 - 0,0 195 1.009,0
10:45 12,0 7,7 10,0 75,0 4,0 42 - 0,0 191 1.009,0
10:44 12,0 7,7 10,0 75,0 4,7 21 - 0,0 183 1.009,0
10:43 12,0 7,7 10,0 75,0 5,2 350 - 0,0 179 1.008,9
10:42 12,0 7,8 10,1 75,0 4,8 1 - 0,0 174 1.009,0
10:41 12,0 7,9 10,1 75,5 4,5 31 - 0,0 178 1.009,0
10:40 12,0 8,0 10,2 76,0 4,1 36 - 0,0 184 1.009,0
10:39 12,0 8,0 10,2 76,0 3,8 82 - 0,0 184 1.009,0
10:38 12,0 8,0 10,2 76,0 3,8 113 - 0,0 191 1.009,0
10:37 12,0 8,0 10,2 76,0 3,7 41 - 0,0 201 1.009,0
10:36 12,0 8,0 10,2 76,0 3,3 35 - 0,0 206 1.009,0
10:35 12,0 7,9 10,1 76,0 2,4 314 - 0,0 207 1.009,0
10:34 11,9 7,9 10,1 76,0 2,3 47 - 0,0 239 1.009,0
10:33 12,0 7,9 10,1 76,0 4,0 70 - 0,0 224 1.009,0
10:32 12,0 7,9 10,1 76,0 4,7 47 - 0,0 209 1.009,0
10:31 11,9 7,9 10,1 76,0 4,8 27 - 0,0 245 1.009,0
10:30 11,9 7,9 10,1 76,0 4,1 28 - 0,0 237 1.009,0
10:29 11,9 7,8 10,1 76,0 3,5 64 - 0,0 226 1.009,0
10:28 11,9 7,8 10,0 76,0 3,2 23 - 0,0 237 1.008,9
10:27 11,9 7,6 9,9 75,2 3,8 50 - 0,0 253 1.008,9
10:26 11,9 7,8 10,0 76,0 4,6 46 - 0,0 258 1.009,0
10:25 11,8 7,8 10,0 76,0 4,7 47 - 0,0 228 1.008,9
10:24 11,8 7,8 10,0 76,0 4,3 95 - 0,0 210 1.008,9
10:23 11,8 7,7 9,9 76,0 3,6 58 - 0,0 190 1.009,0
10:22 11,8 7,7 9,9 76,0 3,1 84 - 0,0 190 1.008,9
10:21 11,7 7,9 10,0 76,9 3,1 74 - 0,0 208 1.008,9
10:20 11,7 7,9 10,0 77,0 3,0 53 - 0,0 197 1.008,9
10:19 11,7 7,8 9,9 77,0 2,7 57 - 0,0 171 1.008,9
10:18 11,7 7,8 9,9 77,0 2,6 33 - 0,0 167 1.008,9
10:17 11,7 7,8 9,9 77,0 2,5 44 - 0,0 176 1.008,9
10:16 11,6 7,8 9,9 77,0 2,5 49 - 0,0 177 1.008,9
10:15 11,6 7,8 9,9 77,0 3,0 36 - 0,0 164 1.008,9
10:14 11,6 7,8 9,9 77,0 3,7 54 - 0,0 144 1.008,9
10:13 11,6 7,8 9,9 77,0 3,7 46 - 0,0 129 1.009,0
10:12 11,6 7,7 9,9 77,0 3,3 36 - 0,0 129 1.009,0
10:11 11,6 7,7 9,8 77,0 3,2 56 - 0,0 128 1.008,9
10:10 11,6 7,7 9,8 77,0 3,6 56 - 0,0 127 1.008,9
10:09 11,5 7,7 9,8 77,0 4,0 50 - 0,0 128 1.008,9
10:08 11,5 7,7 9,8 77,0 3,9 37 - 0,0 122 1.008,9
10:07 11,5 7,7 9,8 77,0 3,2 37 - 0,0 139 1.008,9
10:06 11,5 7,7 9,8 77,0 2,9 60 - 0,0 185 1.008,9
10:05 11,5 7,5 9,7 76,4 3,3 32 - 0,0 193 1.008,9
10:04 11,5 7,5 9,7 76,0 3,9 33 - 0,0 175 1.008,9
10:03 11,5 7,7 9,8 77,0 4,3 30 - 0,0 145 1.008,9
10:02 11,6 7,7 9,8 77,0 4,4 41 - 0,0 130 1.008,9
10:01 11,6 7,7 9,8 77,0 4,3 32 - 0,0 120 1.008,9
10:00 11,6 7,7 9,8 77,0 3,7 42 - 0,0 116 1.008,9
 
09:59 11,6 7,7 9,8 77,0 3,4 38 - 0,0 118 1.008,9
09:58 11,6 7,7 9,8 77,0 3,5 23 - 0,0 119 1.008,9
09:57 11,6 7,5 9,7 76,1 3,6 37 - 0,0 119 1.008,9
09:56 11,6 7,6 9,8 76,3 3,9 38 - 0,0 123 1.008,9
09:55 11,6 7,7 9,8 76,6 4,2 48 - 0,0 136 1.008,9
09:54 11,6 7,7 9,8 76,6 4,5 24 - 0,0 147 1.008,9
09:53 11,6 7,6 9,8 76,3 4,5 30 - 0,0 160 1.008,9
09:52 11,6 7,6 9,8 76,0 4,4 20 - 0,0 188 1.008,9
09:51 11,6 7,6 9,8 76,0 4,3 53 - 0,0 179 1.008,9
09:50 11,7 7,6 9,8 76,0 4,5 57 - 0,0 164 1.008,9
09:49 11,7 7,6 9,8 76,0 4,8 23 - 0,0 162 1.008,9
09:48 11,7 7,7 9,9 76,0 5,0 39 - 0,0 169 1.008,9
09:47 11,7 7,6 9,9 76,0 4,6 40 - 0,0 178 1.008,9
09:46 11,7 7,6 9,8 76,0 3,9 65 - 0,0 190 1.008,9
09:45 11,7 7,6 9,8 76,0 3,6 55 - 0,0 197 1.008,9
09:44 11,7 7,6 9,8 76,0 3,6 41 - 0,0 194 1.008,9
09:43 11,6 7,6 9,8 76,0 3,5 67 - 0,0 207 1.008,8
09:42 11,6 7,5 9,8 76,0 3,4 55 - 0,0 217 1.008,8
09:41 11,6 7,5 9,7 76,0 3,4 51 - 0,0 215 1.008,8
09:40 11,6 7,5 9,7 76,0 3,8 33 - 0,0 202 1.008,9
09:39 11,6 7,5 9,7 76,0 3,9 30 - 0,0 206 1.008,8
09:38 11,6 7,5 9,7 76,0 4,1 86 - 0,0 220 1.008,8
09:37 11,6 7,5 9,7 76,0 4,5 36 - 0,0 228 1.008,8
09:36 11,5 7,5 9,7 76,0 4,7 64 - 0,0 237 1.008,8
09:35 11,5 7,5 9,7 76,0 4,7 22 - 0,0 244 1.008,8
09:34 11,5 7,5 9,7 76,0 4,7 59 - 0,0 240 1.008,8
09:33 11,5 7,5 9,7 76,0 4,8 56 - 0,0 233 1.008,8
09:32 11,5 7,5 9,7 76,0 5,3 72 - 0,0 232 1.008,8
09:31 11,5 7,5 9,7 76,0 5,9 53 - 0,0 217 1.008,8
09:30 11,5 7,5 9,7 76,0 5,8 51 - 0,0 206 1.008,8
09:29 11,5 7,3 9,6 75,3 5,3 60 - 0,0 212 1.008,8
09:28 11,5 7,2 9,5 75,0 5,3 56 - 0,0 238 1.008,9
09:27 11,5 7,2 9,5 75,0 5,7 51 - 0,0 264 1.008,9
09:26 11,4 7,2 9,5 75,0 5,3 66 - 0,0 293 1.008,8
09:25 11,4 7,1 9,5 74,5 4,7 78 - 0,0 301 1.008,9
09:24 11,4 7,0 9,4 74,0 4,3 72 - 0,0 271 1.008,8
09:23 11,4 7,0 9,4 74,0 4,9 69 - 0,0 283 1.008,8
09:22 11,4 7,0 9,4 74,0 5,5 57 - 0,0 273 1.008,9
09:21 11,4 7,0 9,4 74,0 5,1 66 - 0,0 260 1.008,8
09:20 11,4 7,0 9,4 74,0 4,8 39 - 0,0 312 1.008,8
09:19 11,5 7,0 9,4 74,0 5,4 63 - 0,0 292 1.008,8
09:18 11,5 7,1 9,5 74,0 5,7 63 - 0,0 267 1.008,8
09:17 11,5 7,1 9,5 74,0 5,0 67 - 0,0 297 1.008,8
09:16 11,5 7,1 9,4 74,0 4,5 41 - 0,0 235 1.008,7
09:15 11,5 7,1 9,4 74,0 4,7 59 - 0,0 224 1.008,8
09:14 11,5 7,1 9,5 74,0 4,9 54 - 0,0 211 1.008,8
09:13 11,5 7,1 9,5 74,0 5,3 34 - 0,0 203 1.008,8
09:12 11,5 7,1 9,5 74,0 5,1 46 - 0,0 199 1.008,7
09:11 11,6 7,1 9,5 74,0 4,7 51 - 0,0 195 1.008,7
09:10 11,5 7,1 9,5 74,0 4,1 41 - 0,0 197 1.008,7
09:09 11,5 7,1 9,5 74,0 4,1 42 - 0,0 204 1.008,7
09:08 11,6 7,1 9,5 74,0 4,7 49 - 0,0 199 1.008,6
09:07 11,6 7,1 9,5 74,0 5,2 80 - 0,0 204 1.008,6
09:06 11,6 7,1 9,5 74,0 5,0 87 - 0,0 216 1.008,6
09:05 11,6 7,1 9,5 74,0 4,8 49 - 0,0 233 1.008,6
09:04 11,6 7,2 9,6 74,0 5,3 47 - 0,0 253 1.008,7
09:03 11,6 7,2 9,6 74,0 5,4 83 - 0,0 276 1.008,6
09:02 11,6 7,2 9,6 74,0 5,4 52 - 0,0 256 1.008,6
09:01 11,6 7,2 9,5 74,0 4,8 66 - 0,0 243 1.008,6
09:00 11,6 7,1 9,5 74,0 3,8 66 - 0,0 243 1.008,6
 
08:59 11,5 7,1 9,5 74,0 3,1 92 - 0,0 244 1.008,6
08:58 11,5 7,1 9,4 74,0 3,2 54 - 0,0 246 1.008,6
08:57 11,5 7,0 9,4 74,0 4,0 60 - 0,0 266 1.008,6
08:56 11,4 7,0 9,4 74,0 4,3 55 - 0,0 265 1.008,6
08:55 11,4 6,9 9,3 73,4 3,9 65 - 0,0 254 1.008,6
08:54 11,4 6,8 9,3 73,0 3,4 41 - 0,0 248 1.008,6
08:53 11,4 7,0 9,4 73,8 3,7 44 - 0,0 260 1.008,5
08:52 11,4 6,8 9,3 73,0 3,8 70 - 0,0 243 1.008,5
08:51 11,4 6,8 9,2 73,0 3,9 98 - 0,0 213 1.008,5
08:50 11,4 6,8 9,2 73,0 4,1 64 - 0,0 202 1.008,5
08:49 11,4 6,8 9,2 73,0 4,4 68 - 0,0 184 1.008,5
08:48 11,3 6,7 9,2 73,0 4,0 78 - 0,0 183 1.008,5
08:47 11,3 6,7 9,2 73,1 4,1 66 - 0,0 200 1.008,4
08:46 11,3 6,9 9,3 74,0 4,6 70 - 0,0 206 1.008,5
08:45 11,3 6,9 9,2 74,0 4,8 64 - 0,0 216 1.008,4
08:44 11,3 7,0 9,3 74,7 4,3 49 - 0,0 250 1.008,5
08:43 11,2 7,0 9,3 75,0 4,2 49 - 0,0 223 1.008,4
08:42 11,2 7,0 9,3 75,0 4,3 36 - 0,0 263 1.008,4
08:41 11,2 6,9 9,2 75,0 4,6 46 - 0,0 264 1.008,3
08:40 11,1 6,9 9,2 75,3 5,5 78 - 0,0 254 1.008,3
08:39 11,1 7,1 9,3 76,0 5,4 76 - 0,0 247 1.008,3
08:38 11,1 7,0 9,2 76,0 4,4 72 - 0,0 246 1.008,4
08:37 11,0 7,0 9,2 76,0 3,4 81 - 0,0 238 1.008,4
08:36 11,0 6,9 9,1 76,0 3,3 92 - 0,0 228 1.008,4
08:35 10,9 6,9 9,1 76,0 3,1 94 - 0,0 220 1.008,3
08:34 10,9 6,9 9,1 76,0 3,5 90 - 0,0 208 1.008,4
08:33 10,9 7,0 9,1 76,4 4,7 70 - 0,0 207 1.008,3
08:32 10,9 7,0 9,2 77,0 5,3 76 - 0,0 206 1.008,3
08:31 10,8 7,1 9,2 77,7 4,8 64 - 0,0 206 1.008,4
08:30 10,8 7,2 9,2 78,0 3,7 70 - 0,0 198 1.008,4
08:29 10,8 7,1 9,2 78,0 3,2 103 - 0,0 185 1.008,4
08:28 10,8 7,2 9,2 78,3 3,2 52 - 0,0 173 1.008,3
08:27 10,8 7,3 9,3 79,0 3,5 84 - 0,0 170 1.008,3
08:26 10,7 7,3 9,2 79,0 3,1 68 - 0,0 160 1.008,3
08:25 10,7 7,3 9,2 79,0 2,5 68 - 0,0 146 1.008,3
08:24 10,7 7,3 9,2 79,0 2,4 55 - 0,0 138 1.008,3
08:23 10,7 7,3 9,2 79,2 2,9 84 - 0,0 117 1.008,3
08:22 10,7 7,4 9,3 80,0 3,4 45 - 0,0 113 1.008,3
08:21 10,7 7,4 9,3 80,0 3,6 77 - 0,0 108 1.008,3
08:20 10,7 7,4 9,3 80,0 3,5 91 - 0,0 102 1.008,3
08:19 10,7 7,4 9,3 80,0 2,8 59 - 0,0 104 1.008,3
08:18 10,7 7,4 9,3 80,0 2,3 88 - 0,0 102 1.008,3
08:17 10,7 7,5 9,3 81,0 2,1 86 - 0,0 97 1.008,3
08:16 10,7 7,6 9,4 81,0 2,2 82 - 0,0 94 1.008,3
08:15 10,7 7,6 9,4 81,0 2,9 29 - 0,0 96 1.008,3
08:14 10,7 7,5 9,3 81,0 3,2 72 - 0,0 97 1.008,2
08:13 10,6 7,5 9,3 81,0 3,4 106 - 0,0 96 1.008,2
08:12 10,7 7,6 9,4 81,1 3,4 53 - 0,0 97 1.008,2
08:11 10,7 7,7 9,4 82,0 3,3 68 - 0,0 105 1.008,2
08:10 10,6 7,7 9,4 82,0 2,7 49 - 0,0 106 1.008,2
08:09 10,6 7,7 9,4 82,0 2,7 24 - 0,0 95 1.008,2
08:08 10,6 7,7 9,4 82,0 3,0 65 - 0,0 94 1.008,2
08:07 10,6 7,6 9,4 82,0 3,5 77 - 0,0 100 1.008,2
08:06 10,6 7,6 9,3 82,0 3,8 64 - 0,0 99 1.008,2
08:05 10,6 7,7 9,4 82,4 4,1 57 - 0,0 98 1.008,2
08:04 10,6 7,8 9,4 83,0 3,9 59 - 0,0 97 1.008,2
08:03 10,5 7,8 9,4 83,0 4,1 52 - 0,0 95 1.008,3
08:02 10,5 7,7 9,4 83,0 4,1 74 - 0,0 94 1.008,3
08:01 10,5 7,7 9,4 83,0 3,6 51 - 0,0 90 1.008,2
08:00 10,5 7,7 9,4 83,0 2,8 74 - 0,0 86 1.008,2
 
07:59 10,5 7,7 9,4 83,0 2,9 30 - 0,0 81 1.008,2
07:58 10,5 7,7 9,4 83,0 3,3 50 - 0,0 93 1.008,2
07:57 10,5 7,7 9,3 83,0 3,1 38 - 0,0 101 1.008,3
07:56 10,5 7,7 9,3 83,0 2,8 41 - 0,0 104 1.008,3
07:55 10,4 7,7 9,3 83,0 2,7 37 - 0,0 99 1.008,2
07:54 10,4 7,7 9,3 83,0 2,8 44 - 0,0 90 1.008,2
07:53 10,4 7,7 9,3 83,0 3,1 47 - 0,0 93 1.008,2
07:52 10,4 7,6 9,3 83,0 3,7 63 - 0,0 92 1.008,2
07:51 10,4 7,6 9,3 83,0 2,9 51 - 0,0 103 1.008,2
07:50 10,4 7,6 9,3 83,0 2,5 45 - 0,0 84 1.008,2
07:49 10,4 7,6 9,3 83,0 2,7 36 - 0,0 74 1.008,2
07:48 10,4 7,6 9,3 83,0 3,1 59 - 0,0 75 1.008,2
07:47 10,4 7,6 9,3 83,0 3,2 24 - 0,0 72 1.008,3
07:46 10,3 7,6 9,2 83,0 2,5 35 - 0,0 72 1.008,3
07:45 10,3 7,6 9,2 83,0 2,4 45 - 0,0 70 1.008,2
07:44 10,3 7,6 9,2 83,0 3,0 39 - 0,0 67 1.008,2
07:43 10,3 7,6 9,2 83,0 2,7 39 - 0,0 67 1.008,3
07:42 10,3 7,6 9,2 83,0 3,3 53 - 0,0 67 1.008,3
07:41 10,3 7,6 9,2 83,0 4,0 33 - 0,0 66 1.008,3
07:40 10,3 7,6 9,2 83,0 3,0 53 - 0,0 64 1.008,2
07:39 10,3 7,6 9,2 83,0 4,5 31 - 0,0 63 1.008,2
07:38 10,3 7,6 9,2 83,0 4,4 43 - 0,0 62 1.008,3